[{"header": {"dx": 0.06612293990616946, "dy": 0.0552356325346848, "nx": 98, "ny": 59, "la1": 35.046912555036876, "la2": 31.78801023549047, "lo1": -121.43107172385933, "lo2": -114.95102361305473, "refTime": "2026041204", "parameterCategory": 1, "parameterNumber": 2}, "data": [14.58, 14.55, 14.7, 14.7, 14.69, 14.69, 14.68, 14.75, 14.75, 14.75, 13.86, 11.62, 12.35, 10.38, 9.2, 8.93, 8.93, 9.6, 10.18, 10.41, 10.0, 10.79, 10.41, 10.47, 10.05, 9.7, 8.15, 7.59, 7.9, 8.49, 8.49, 8.49, 8.15, 7.81, 8.94, 6.64, 4.6, 4.0, 3.4, 7.2, 7.07, 6.95, 8.22, 10.37, 12.27, 13.99, 15.93, 15.92, 14.66, 12.11, 9.17, 9.17, 9.17, 9.69, 10.36, 10.59, 10.99, 11.5, 11.5, 11.99, 12.45, 12.85, 12.42, 12.14, 11.92, 11.64, 12.03, 12.11, 13.19, 14.44, 14.6, 13.99, 12.94, 11.84, 12.27, 12.31, 12.35, 13.29, 13.86, 12.52, 10.28, 10.73, 10.73, 10.14, 9.89, 10.04, 10.41, 10.6, 10.79, 10.8, 9.42, 7.51, 8.85, 12.96, -0.0, -2.13, -5.11, -8.59, 14.14, 14.55, 14.55, 14.51, 14.69, 14.69, 15.12, 15.12, 14.75, 14.75, 13.41, 12.96, 11.62, 10.52, 10.4, 10.0, 9.75, 11.03, 10.18, 10.08, 11.71, 11.21, 11.21, 9.97, 8.93, 8.38, 8.03, 7.9, 7.59, 7.15, 5.64, 5.4, 4.32, 2.4, -0.0, -7.6, -7.2, -3.6, 0.0, 6.32, 1.93, 4.32, 9.17, 11.64, 14.79, 16.34, 17.97, 15.92, 13.59, 10.09, 9.76, 9.76, 10.23, 10.12, 10.47, 10.94, 11.16, 11.5, 11.99, 12.21, 12.6, 12.51, 12.3, 11.6, 10.12, 10.79, 10.91, 11.53, 13.03, 14.39, 15.2, 15.02, 13.88, 12.75, 12.9, 12.9, 12.47, 13.29, 13.86, 12.52, 10.28, 10.73, 10.73, 10.14, 9.89, 10.04, 10.41, 10.6, 10.79, 10.8, 9.42, 7.51, 8.85, 12.96, -0.0, -2.13, -5.11, -8.59, 14.14, 14.55, 14.55, 14.51, 14.51, 14.69, 15.12, 15.12, 15.11, 14.3, 12.52, 10.28, 11.62, 11.4, 10.41, 10.18, 10.84, 11.18, 11.18, 12.52, 11.02, 11.4, 10.79, 7.54, 8.01, 7.27, 6.95, 8.18, 6.95, 2.1, 2.37, 1.9, 0.93, 1.11, 0.83, -0.0, -1.95, -8.94, 9.39, -0.0, 1.44, 6.2, 12.22, 15.63, 17.97, 18.38, 17.99, 15.91, 10.91, 10.37, 9.76, 10.59, 10.23, 10.23, 9.88, 11.16, 11.5, 11.99, 12.6, 12.6, 12.94, 12.71, 11.6, 9.17, 8.1, 9.17, 9.76, 10.36, 12.29, 13.71, 14.79, 15.77, 15.25, 13.36, 12.96, 12.52, 12.52, 14.3, 13.86, 13.36, 11.53, 11.62, 11.02, 9.75, 9.45, 9.75, 9.4, 10.27, 10.8, 10.04, 9.8, 8.58, 9.48, 9.48, -0.0, -2.13, -4.55, -6.65, 13.94, 14.11, 14.55, 14.51, 14.51, 14.47, 14.9, 15.11, 14.66, 13.77, 12.0, 10.66, 12.07, 10.96, 10.84, 11.18, 11.62, 12.07, 12.07, 11.18, 11.18, 10.73, 9.3, 7.44, 7.59, 7.9, 7.27, 4.4, -0.0, -2.02, -0.0, -0.0, -1.05, -0.0, 2.58, 4.2, 3.65, 6.2, 8.22, -0.0, 4.42, 10.91, 14.59, 15.54, 15.59, 14.79, 13.2, 10.48, 10.19, 9.84, 9.88, 10.37, 10.37, 9.42, 10.01, 10.79, 11.6, 12.6, 12.94, 13.19, 12.75, 12.46, 7.51, 5.8, 6.87, 7.19, 8.61, 9.02, 10.43, 11.88, 14.13, 15.59, 16.12, 13.99, 12.07, 11.71, 11.56, 13.11, 15.61, 13.23, 11.28, 11.91, 11.46, 10.38, 8.94, 8.22, 9.08, 10.04, 9.62, 9.8, 11.06, 12.27, 13.41, 5.8, -0.0, -1.61, -3.25, -5.28, 13.94, 13.88, 14.31, 14.51, 14.51, 14.47, 14.9, 14.84, 14.66, 13.77, 11.78, 10.66, 11.62, 11.18, 10.73, 11.62, 11.62, 12.07, 12.07, 12.07, 12.52, 9.3, 5.95, 6.45, 6.7, 6.98, 5.0, 4.15, -0.0, -0.0, -1.45, -1.45, -3.19, -2.28, 5.0, 6.71, 7.9, 11.12, 13.99, -0.0, 2.72, 9.24, 9.33, 8.91, 9.17, 8.53, 9.16, 10.19, 10.19, 10.55, 10.55, 9.84, 9.5, 9.42, 10.41, 11.6, 12.18, 12.94, 13.19, 13.36, 12.86, 10.79, 2.63, 3.36, 6.2, 7.44, 7.89, 7.89, 8.05, 10.75, 13.26, 16.57, 17.41, 17.01, 13.44, 11.12, 11.2, 11.2, 13.8, 13.7, 10.68, 10.8, 10.4, 9.3, 5.2, 4.48, 6.94, 7.54, 8.73, 9.09, 12.16, 13.86, 10.79, 5.8, -0.0, -0.0, -1.66, -3.25, 13.94, 13.94, 13.88, 14.31, 14.23, 14.13, 14.9, 14.4, 14.4, 13.53, 11.78, 9.97, 11.18, 10.73, 11.18, 11.18, 11.62, 12.07, 12.07, 12.52, 12.27, 8.53, 6.0, 5.8, 5.4, 4.48, 3.68, 4.4, 3.07, 1.84, -0.0, -0.0, -2.39, -3.82, 7.44, 9.48, 10.79, 12.98, 16.19, -0.0, -0.0, 4.52, 6.44, 6.72, 7.36, 7.51, 8.85, 9.36, 9.5, 9.62, 8.53, 9.5, 9.5, 10.01, 11.6, 12.18, 12.79, 12.91, 13.36, 13.41, 12.71, -0.0, -0.0, 2.81, 5.19, 7.42, 8.18, 8.49, 8.49, 10.22, 12.65, 15.01, 15.8, 16.59, 17.2, 14.95, 12.83, 10.01, 10.8, 11.95, 6.7, 7.24, 8.53, 6.97, 2.28, 2.93, 3.6, 5.31, 7.0, 9.12, 14.3, 13.15, 10.73, 4.65, -0.0, -0.0, -0.0, -1.66, 13.94, 13.67, 13.57, 14.31, 14.23, 14.13, 14.13, 14.4, 13.96, 13.15, 11.45, 9.54, 10.73, 10.73, 12.07, 11.18, 12.07, 12.52, 12.27, 12.52, 11.6, 7.93, 10.43, 8.68, 3.69, 3.58, 2.98, 5.31, 4.81, 4.23, 2.1, -0.0, -0.0, -0.0, 2.82, 8.31, 11.17, 11.88, 11.88, 3.25, -4.52, -0.0, 4.24, 7.44, 8.57, 8.21, 9.17, 9.62, 8.53, 8.85, 8.85, 9.16, 10.01, 10.94, 11.99, 12.75, 12.96, 12.96, 12.91, 12.88, 12.52, -0.0, -0.0, 2.89, 5.35, 8.33, 9.66, 10.17, 11.17, 12.79, 13.99, 14.51, 15.44, 16.54, 16.54, 16.48, 14.58, 12.52, 12.07, 9.67, 5.4, 4.58, 5.2, 5.0, 2.42, 1.84, 2.35, 3.39, 5.81, 13.15, 12.52, 12.58, 6.0, 2.13, 2.06, -0.0, -0.0, -0.0, 13.25, 13.67, 13.57, 13.44, 13.86, 14.13, 13.99, 13.99, 13.57, 12.72, 10.6, 9.21, 10.08, 11.18, 12.52, 11.18, 12.07, 12.96, 12.96, 13.41, 12.72, 11.99, 13.41, 15.65, -0.0, 6.8, -0.0, 5.09, 8.18, 6.0, 2.93, -0.0, -0.0, 3.96, 5.0, 10.41, 11.6, 10.6, 10.79, 8.22, -0.0, -0.0, 8.93, 12.01, 11.38, 10.99, 9.3, 9.48, 8.59, 7.44, 7.56, 8.53, 10.61, 11.99, 12.45, 12.52, 12.47, 12.22, 11.3, 11.62, 12.96, -0.0, -0.0, 2.56, 5.19, 7.71, 10.83, 13.02, 14.03, 14.58, 14.75, 15.2, 15.2, 15.62, 16.09, 15.2, 14.62, 13.37, 12.44, 14.16, 13.02, 4.75, 3.92, 3.34, 1.09, 0.0, 1.58, 8.18, 13.86, 12.07, 12.07, 8.85, 2.63, 2.63, 2.63, -0.0, -0.0, -0.0, 13.32, 13.67, 13.57, 13.44, 13.86, 13.7, 13.99, 13.99, 13.57, 11.85, 10.62, 10.4, 12.58, 12.96, 12.52, 12.52, 12.96, 13.41, 13.41, 13.41, 11.99, 9.48, 13.86, 0.0, 12.96, -0.0, -0.0, 9.8, 11.06, 4.52, -0.0, -0.0, -0.0, 9.8, 10.41, 11.03, 11.18, 11.18, 9.75, 7.27, 4.1, 8.18, 10.43, 10.41, 10.79, 9.7, 8.85, 8.31, 8.72, 8.95, 8.83, 8.53, 9.66, 11.3, 11.98, 11.62, 11.53, 11.18, 8.22, 3.25, 13.86, -0.0, 1.43, 2.48, 5.31, 9.33, 13.38, 14.79, 15.49, 14.71, 14.6, 14.5, 14.9, 14.47, 13.99, 14.14, 14.75, 14.75, 13.86, 16.09, 16.47, 6.4, 3.98, 3.19, 1.64, 2.93, 12.3, 12.58, 10.96, 11.62, 12.07, 3.96, -0.0, -0.0, 2.72, -0.0, -0.0, -0.0, 13.05, 12.93, 13.2, 13.02, 13.7, 13.7, 13.99, 13.99, 13.07, 12.04, 11.62, 11.85, 11.09, 13.28, 13.86, 13.41, 13.57, 13.99, 14.75, 13.41, 12.96, 12.96, 13.86, 14.3, 14.3, 11.62, 9.39, -0.0, 10.43, 6.4, 10.43, 16.54, 15.65, 13.86, 12.07, 10.6, 10.73, 8.4, 6.45, 9.17, 9.17, 10.37, 10.4, 9.97, 9.89, 9.7, 7.56, 7.24, 8.61, 9.02, 8.3, 7.63, 7.2, 7.19, 7.73, 7.26, 5.98, 6.45, 0.0, -4.24, -0.0, 2.35, 2.89, 3.36, 6.4, 10.75, 15.12, 16.05, 14.3, 13.5, 12.62, 12.18, 13.47, 14.1, 13.88, 13.94, 14.28, 13.28, 11.96, 15.07, 17.4, 16.44, 8.05, 7.59, 9.55, 9.83, 9.45, 9.45, 10.96, 11.18, 12.07, -0.0, -0.0, -0.0, -0.0, -0.0, -0.0, -0.0, 13.05, 12.93, 13.2, 13.43, 13.19, 13.48, 13.48, 13.48, 13.07, 12.45, 11.6, 12.66, 12.39, 13.32, 14.03, 14.03, 15.18, 15.34, 15.65, 16.99, 17.43, 17.43, 16.99, 14.75, 14.75, 12.96, 10.28, 7.27, -0.0, 13.86, 11.6, 5.8, 0.0, 7.9, 11.18, 10.8, 5.2, 2.82, 5.4, 9.8, 12.27, 11.99, 10.4, 10.84, 9.96, 7.27, 5.95, 7.15, 8.59, 7.27, 5.43, 5.02, 4.16, 4.07, 2.56, 1.78, 2.64, 5.16, 8.53, 5.8, 1.25, 2.89, 3.0, 4.66, 8.72, 10.75, 13.01, 14.33, 13.27, 12.71, 12.52, 12.86, 14.22, 13.96, 13.15, 12.39, 11.9, 10.37, 10.01, 12.21, 14.75, 16.09, 14.42, 12.96, 11.53, 9.6, 9.4, 10.05, 9.86, 10.84, 10.0, 8.53, -0.0, -4.1, -0.0, -0.0, -0.0, -0.0, 13.15, 13.05, 13.2, 13.43, 12.9, 13.48, 13.48, 13.48, 13.28, 12.45, 11.99, 12.39, 13.19, 13.15, 12.89, 12.04, 12.04, 14.6, 16.09, 16.99, 16.54, 16.09, 15.34, 16.09, 13.41, 12.96, 12.52, 7.94, 11.18, 10.28, 10.18, 10.4, 10.4, 8.8, 10.73, 8.23, 5.1, 5.4, 8.85, 11.16, 11.88, 11.5, 10.8, 10.0, 7.27, 4.83, 4.8, 3.98, 4.15, 1.84, 1.84, 1.71, 1.67, 1.68, 1.68, 2.58, 4.43, 7.98, 9.64, 5.8, 1.89, 3.58, 5.3, 6.6, 7.59, 7.98, 8.0, 6.1, 3.46, 6.01, 9.39, 10.58, 10.94, 11.85, 12.96, 11.09, 8.66, 8.38, 9.42, 10.59, 13.15, 13.15, 11.5, 13.19, 10.94, 10.94, 9.81, 9.2, 9.1, 8.73, 8.93, 8.93, -0.0, -3.82, -0.0, -0.0, -2.06, -1.55, 13.15, 13.05, 13.35, 13.43, 12.9, 12.9, 12.9, 13.07, 12.79, 12.62, 12.62, 12.79, 13.48, 13.97, 14.38, 13.97, 13.88, 13.01, 12.86, 13.31, 13.41, 13.41, 13.28, 13.28, 13.41, 13.41, 13.34, 13.19, 12.02, 9.83, 10.52, 11.28, 11.62, 10.84, 10.28, 5.46, 3.82, 6.71, 9.67, 10.8, 11.2, 11.2, 9.66, 7.27, 3.11, 2.39, 2.02, 2.1, 1.84, 1.84, 1.07, -0.0, -0.0, -0.0, 1.77, 3.79, 6.6, 10.3, 9.4, 4.32, 0.92, 3.68, 5.33, 4.98, 4.08, 4.67, 4.55, 3.12, 4.75, 10.47, 12.87, 12.17, 11.6, 10.41, 11.03, 13.86, 0.0, 3.47, 9.48, 10.41, 11.46, 11.4, 11.87, 12.56, 10.37, 11.72, 12.36, 10.99, 8.47, 8.79, 8.06, 8.37, 7.9, -0.0, -0.0, -0.0, -1.98, -1.33, 13.15, 13.15, 12.93, 13.02, 13.19, 12.5, 12.5, 12.5, 12.79, 13.02, 13.02, 13.02, 13.19, 13.59, 14.79, 14.79, 15.07, 14.42, 14.4, 13.96, 14.19, 14.19, 14.64, 15.53, 15.53, 15.65, 14.3, 14.3, 13.86, 12.96, 11.57, 11.46, 11.71, 10.73, 9.2, 2.39, 2.97, 5.7, 8.55, 8.93, 9.67, 9.3, 7.9, 5.0, 2.39, 1.93, -0.0, -0.0, 2.1, 2.6, -0.0, -0.0, -0.0, -0.0, 5.8, 8.53, 8.53, 11.9, 12.5, 4.54, -0.0, 2.63, 4.98, 3.98, 3.68, 4.05, 3.05, 4.61, 7.14, 12.26, 15.82, 13.01, 12.81, 11.27, 11.57, 14.75, -0.0, 10.75, 14.31, 14.55, 13.31, 12.27, 12.47, 14.26, 11.2, 12.45, 13.35, 12.39, 9.16, 8.79, 8.3, 8.99, 9.58, 5.2, -0.0, -0.0, -0.0, -0.0, 13.15, 13.15, 13.05, 13.2, 12.79, 12.5, 12.13, 12.5, 12.79, 13.02, 13.02, 13.43, 13.19, 13.89, 15.07, 15.49, 15.49, 16.15, 15.71, 15.27, 15.11, 15.11, 15.53, 16.09, 16.09, 16.54, 16.09, 15.65, 15.2, 14.75, 13.81, 12.27, 11.84, 10.73, 4.6, 2.39, 2.49, 5.21, 7.9, 8.55, 7.59, 6.45, 5.95, 4.8, 2.28, 2.28, 2.28, -0.0, 2.17, 3.11, 3.25, 3.25, 4.4, 6.01, 8.94, 6.32, 4.4, 10.73, 11.39, 6.21, 1.05, 2.82, 4.24, 4.24, 4.24, 4.55, 4.87, 5.28, 8.38, 12.65, 13.55, 17.45, 14.18, 13.86, 14.22, 13.42, 7.98, 11.06, 13.42, 13.74, 14.19, 13.32, 12.39, 12.48, 11.98, 13.86, 13.8, 12.6, 10.99, 10.55, 10.0, 9.77, 9.7, 5.0, -0.0, -0.0, -0.0, -0.0, 13.15, 13.15, 13.05, 13.35, 13.02, 12.5, 12.13, 11.9, 12.79, 13.02, 13.43, 13.62, 13.43, 14.11, 13.99, 15.07, 16.05, 16.58, 16.58, 16.46, 16.01, 16.09, 16.09, 16.54, 16.54, 16.54, 16.54, 16.09, 15.65, 15.2, 15.15, 14.95, 13.53, 11.62, 3.25, 1.75, 1.93, 4.4, 6.2, 5.95, 5.7, 5.95, 5.95, 4.4, 4.2, 2.28, 2.28, 2.17, 2.83, 2.69, 4.96, 6.32, 8.48, 8.0, 8.49, 8.49, 8.49, 9.54, 7.26, 4.58, 3.25, 4.8, 5.95, 5.95, 5.29, 5.0, 4.6, 6.67, 8.66, 11.9, 13.7, 16.99, 18.73, 16.05, 16.99, 7.76, 8.68, 11.2, 12.05, 13.16, 13.8, 14.58, 13.89, 12.58, 11.62, 10.0, 12.04, 13.41, 12.89, 11.92, 11.87, 10.05, 4.15, 1.39, 1.92, -0.0, -0.0, -0.0, 13.15, 13.15, 13.47, 13.05, 12.79, 12.27, 11.9, 12.27, 12.27, 12.56, 12.95, 13.19, 13.84, 13.59, 14.3, 14.65, 15.18, 16.15, 16.88, 16.9, 16.46, 16.09, 16.09, 16.09, 16.09, 16.09, 16.01, 16.03, 16.04, 16.48, 16.93, 16.71, 15.71, 14.3, 4.6, 4.0, 4.2, 5.95, 7.27, 7.27, 7.59, 2.83, 5.46, 4.71, 4.2, 2.28, 2.28, 5.21, 4.96, 6.32, 7.44, 7.81, 7.81, 8.4, 7.51, 7.51, 8.43, 8.03, 7.15, 7.44, 7.15, 7.27, 6.95, 6.95, 5.9, 2.46, 1.69, 4.65, 9.17, 11.26, 13.79, 15.04, 17.68, 16.58, 12.33, 8.88, 10.68, 11.82, 13.26, 12.89, 12.89, 13.64, 13.37, 12.87, 12.18, 11.46, 6.45, 12.96, 13.41, 13.28, 11.84, 10.27, 4.15, 1.44, 2.52, 1.07, -0.0, -0.0, 13.15, 13.15, 13.57, 13.47, 12.93, 12.17, 11.9, 11.9, 12.27, 12.65, 12.95, 13.59, 13.59, 13.84, 14.11, 14.42, 14.84, 15.71, 16.44, 16.46, 16.01, 16.09, 15.65, 15.2, 15.65, 16.09, 16.22, 15.84, 15.96, 17.15, 17.36, 17.88, 17.88, 14.71, 9.42, 4.71, 5.59, 7.27, 8.93, 7.27, 6.95, 6.64, 6.01, 6.32, 4.96, 2.97, 2.97, 5.21, 7.81, 7.81, 8.4, 8.8, 8.18, 6.95, 6.95, 6.95, 6.95, 7.27, 7.59, 8.73, 8.73, 8.38, 8.03, 6.95, 4.2, 1.33, 1.45, 4.32, 7.59, 10.75, 15.65, 16.99, 20.12, 17.59, 13.55, 13.26, 14.33, 15.8, 16.97, 14.3, 13.52, 12.96, 13.15, 12.46, 12.42, 12.46, 12.71, 12.96, 13.41, 13.86, 13.28, 10.73, 4.32, 1.44, 1.28, 1.23, 1.11, 1.11, 13.15, 13.15, 13.15, 13.57, 12.74, 12.39, 12.27, 11.9, 11.64, 12.65, 12.95, 13.59, 13.99, 14.44, 13.59, 15.61, 13.81, 15.18, 15.55, 15.12, 15.57, 16.01, 15.65, 16.54, 15.2, 16.54, 13.72, 16.76, 17.2, 16.09, 17.43, 17.53, 16.6, 14.95, 11.69, 8.85, 6.95, 7.21, 8.43, 10.84, 10.08, 9.97, 10.28, 9.54, 6.95, 5.46, 5.46, 6.64, 7.81, 7.81, 8.8, 8.8, 6.95, 5.9, 5.9, 7.27, 6.95, 7.59, 6.98, 8.73, 8.38, 8.38, 8.82, 6.32, 1.84, -0.0, -0.0, 4.8, 7.56, 11.61, 13.59, 16.37, 21.41, 20.32, 18.19, 16.54, 16.09, 16.54, 17.41, 17.77, 14.19, 14.28, 13.83, 12.48, 12.9, 12.86, 12.27, 11.4, 12.96, 12.96, 12.39, 10.73, 6.21, 1.64, -0.0, 1.28, -0.0, -0.0, 13.15, 13.15, 13.15, 12.87, 12.74, 12.39, 12.27, 11.29, 11.64, 12.09, 12.95, 13.59, 13.99, 13.99, 14.24, 14.11, 13.99, 14.31, 15.49, 15.05, 16.82, 15.97, 15.93, 17.2, 16.54, 16.54, 16.54, 15.97, 16.58, 16.12, 16.19, 16.19, 14.95, 14.28, 13.41, 12.16, 9.84, 9.46, 9.63, 8.29, 8.77, 9.21, 9.21, 8.91, 8.0, 9.6, 8.18, 8.18, 7.81, 7.81, 8.4, 8.4, 6.64, 5.9, 5.36, 6.64, 7.59, 6.95, 7.27, 8.38, 8.82, 8.23, 6.95, 4.4, 1.54, -0.0, -0.0, 4.8, 7.27, 10.4, 12.63, 15.27, 22.0, 23.05, 18.68, 14.99, 12.29, 13.1, 14.93, 15.09, 15.17, 15.2, 14.75, 13.41, 12.07, 11.62, 10.58, 8.58, 10.4, 9.67, 10.79, 9.48, 6.94, 2.28, -0.0, -0.0, -0.0, -0.0, 13.15, 13.15, 13.15, 12.87, 12.87, 12.58, 12.17, 11.29, 11.64, 12.0, 12.45, 13.59, 13.99, 13.99, 14.44, 14.7, 14.13, 13.99, 12.66, 15.08, 16.82, 16.54, 16.54, 16.09, 16.99, 16.99, 15.83, 16.39, 16.38, 16.6, 16.6, 15.59, 15.59, 14.51, 14.13, 13.23, 12.51, 10.99, 10.4, 9.75, 8.99, 9.42, 9.42, 9.13, 8.72, 9.96, 8.8, 8.18, 7.81, 7.81, 8.0, 6.64, 4.2, 4.4, 6.17, 6.95, 7.27, 7.27, 7.59, 7.87, 8.8, 6.95, 4.4, 2.39, 1.54, 2.02, 2.93, 3.68, 6.5, 8.75, 10.94, 13.25, 19.39, 20.82, 18.63, 12.97, 9.42, 10.61, 12.29, 13.99, 15.18, 15.62, 15.2, 14.3, 13.41, 12.52, 11.91, 10.0, 10.4, 9.58, 8.53, 9.17, 8.01, 5.98, -0.0, -0.0, -0.0, -0.0, 13.15, 13.15, 12.87, 12.87, 12.87, 12.74, 12.39, 11.72, 11.64, 12.0, 12.45, 12.82, 13.59, 13.99, 14.44, 14.44, 14.28, 14.13, 14.13, 16.22, 16.92, 16.54, 16.09, 16.09, 16.99, 17.88, 17.36, 16.27, 15.96, 16.39, 16.7, 16.19, 15.93, 15.24, 14.85, 14.4, 13.27, 11.75, 11.44, 10.21, 9.55, 9.13, 8.72, 8.72, 8.3, 7.71, 9.55, 9.54, 8.91, 7.44, 7.44, 6.64, 6.32, 6.64, 6.95, 6.17, 6.7, 6.87, 7.59, 8.18, 6.32, -0.0, -0.0, 1.84, 1.62, 2.37, 2.06, 2.28, 4.08, 4.93, 6.0, 7.92, 14.34, 16.58, 0.0, 3.0, 6.48, 8.9, 9.47, 11.06, 13.2, 14.75, 15.61, 15.65, 15.2, 14.3, 13.86, 13.41, 12.3, 10.68, 9.08, 8.53, 9.5, 8.53, 2.82, -0.0, -0.0, -0.0, 13.15, 13.15, 12.87, 12.87, 12.87, 12.74, 12.79, 11.72, 11.64, 12.0, 12.45, 12.82, 13.99, 14.21, 14.21, 14.44, 14.28, 13.7, 14.56, 16.22, 16.71, 16.03, 15.14, 15.2, 16.54, 17.43, 17.81, 17.36, 16.71, 15.78, 16.22, 15.69, 15.69, 15.11, 15.11, 14.79, 14.39, 13.19, 11.85, 10.62, 9.96, 9.55, 9.13, 8.3, 7.71, 7.71, 9.7, 9.11, 8.48, 7.07, 7.44, 6.32, 6.32, 6.32, 6.64, 5.9, 4.05, 6.5, 7.9, -0.0, -9.39, -3.25, -0.0, 1.62, 1.62, 2.06, 2.13, 2.19, 1.84, 1.39, 1.77, 4.71, 20.6, 15.46, -0.0, -6.3, 0.0, 5.56, 8.97, 9.67, 10.31, 12.27, 14.6, 15.74, 15.93, 15.02, 14.4, 14.75, 11.44, 9.48, 9.62, 9.16, 9.16, 9.27, 5.2, -0.0, -0.0, -0.0, 13.15, 13.15, 12.87, 12.87, 12.87, 12.39, 12.2, 12.07, 11.64, 12.0, 12.45, 13.2, 13.99, 14.21, 14.21, 14.6, 14.84, 13.86, 15.09, 15.41, 16.27, 16.71, 16.03, 14.69, 15.2, 16.54, 17.43, 17.36, 17.36, 16.9, 16.01, 15.71, 15.27, 15.27, 15.07, 15.07, 15.07, 14.23, 12.56, 11.03, 9.85, 9.42, 9.85, 9.85, 8.56, 7.71, 9.7, 9.21, 8.0, 8.0, 8.0, 7.6, 7.6, 8.0, 6.32, 4.2, 3.8, 6.01, 6.98, 5.95, -3.8, -4.96, -0.0, 1.54, 1.93, 2.28, 4.1, 4.81, 2.1, -0.0, 3.25, 14.75, 23.59, 21.63, 17.85, 15.91, 14.42, 4.38, 6.6, 7.76, 8.7, 9.67, 10.98, 12.03, 12.79, 12.99, 12.39, 11.53, 5.15, 7.1, 8.44, 7.95, 8.53, 8.53, 6.45, 2.82, -0.0, -0.0, 12.87, 12.87, 12.87, 12.87, 12.87, 12.87, 12.2, 12.07, 12.09, 12.0, 12.45, 12.82, 13.51, 13.99, 14.21, 14.6, 14.44, 14.42, 14.66, 15.53, 15.83, 16.71, 16.92, 16.47, 15.65, 15.65, 16.99, 17.43, 17.43, 16.99, 16.9, 16.44, 15.18, 15.18, 15.61, 15.47, 14.79, 14.38, 13.39, 11.45, 9.85, 9.42, 9.64, 10.08, 9.64, 9.21, 8.45, 8.33, 8.56, 8.72, 8.3, 9.55, 7.6, 8.0, 7.44, 4.96, 4.96, 5.37, 5.36, 5.06, 5.46, -0.0, -0.0, -0.0, 2.19, 2.72, 2.06, 3.96, 4.15, 9.97, 11.18, 12.96, 18.56, 24.17, 20.35, 18.55, 17.67, 16.9, 8.57, 5.4, 7.59, 8.43, 9.89, 11.54, 10.73, 9.76, 12.96, 2.54, 2.2, 3.1, 6.29, 7.44, 8.42, 9.36, 8.22, 6.2, 2.19, 2.19, 12.87, 12.87, 12.87, 12.87, 12.87, 12.87, 12.56, 12.36, 12.09, 11.64, 12.45, 12.45, 13.2, 13.99, 14.21, 14.6, 14.6, 14.84, 15.18, 15.09, 15.09, 15.83, 16.71, 16.92, 16.54, 16.09, 16.09, 16.99, 17.43, 17.43, 16.99, 16.88, 16.41, 16.41, 15.61, 15.47, 14.79, 14.79, 14.65, 13.09, 10.96, 10.08, 9.64, 9.79, 10.23, 10.23, 9.64, 8.56, 8.3, 8.82, 8.55, 8.72, 9.13, 8.8, 6.32, 6.32, 6.01, 4.46, 2.17, 2.17, 5.06, 6.17, 4.0, 2.28, 2.02, 2.45, 2.37, 5.6, 8.38, 9.75, 10.65, 12.96, 14.47, 19.71, 23.11, 18.74, 17.82, 17.38, 15.27, 3.96, 4.98, 7.45, 8.99, 9.7, 9.64, 10.82, 11.16, 4.98, 3.68, 3.98, 5.64, 8.85, 9.48, 9.59, 8.31, 7.27, 5.0, 5.0, 12.87, 12.87, 12.87, 12.87, 12.87, 12.98, 12.56, 12.39, 12.56, 12.09, 12.45, 12.45, 13.2, 13.59, 14.21, 14.6, 14.6, 14.95, 14.84, 15.18, 15.18, 15.43, 15.87, 16.48, 16.47, 16.54, 16.09, 16.54, 16.99, 16.99, 16.99, 16.88, 16.9, 16.66, 15.84, 15.11, 14.03, 14.79, 15.69, 15.27, 13.77, 11.78, 10.52, 9.79, 10.08, 9.85, 9.85, 8.82, 8.14, 8.14, 8.82, 9.13, 9.33, 8.8, 8.18, 6.63, 6.01, 4.46, -0.0, -0.0, 4.2, 6.64, 7.59, 1.75, 2.1, 2.02, 5.2, 8.38, 8.55, 9.45, 10.84, 11.4, 13.7, 16.54, 17.92, 21.2, 19.37, 17.07, 15.68, 3.19, 1.9, 5.48, 7.36, 7.78, 7.18, 9.48, 14.3, 5.31, 4.38, 4.87, 5.63, 9.49, 10.92, 10.73, 10.03, 8.22, 7.27, 7.27, 12.87, 12.87, 12.87, 12.87, 12.87, 12.98, 12.56, 12.56, 12.6, 12.27, 12.09, 12.45, 13.34, 13.59, 13.8, 14.19, 14.6, 14.95, 14.95, 15.18, 15.18, 15.43, 15.43, 15.59, 16.04, 16.09, 16.09, 16.09, 16.5, 16.54, 16.54, 16.46, 16.66, 16.39, 15.96, 14.79, 14.79, 15.52, 16.12, 15.27, 13.99, 11.85, 9.58, 8.43, 8.42, 8.3, 9.03, 8.63, 8.55, 8.55, 8.82, 9.13, 8.99, 8.99, 8.58, 8.18, 7.15, 6.01, 1.58, 3.32, 6.32, 6.98, 5.06, 2.97, 2.97, 5.0, 8.94, 10.08, 9.33, 9.45, 10.91, 12.01, 12.52, 13.41, 15.91, 18.2, 22.25, 16.83, 15.71, 12.79, 0.0, 3.28, 7.11, 7.44, 6.48, 7.28, 13.41, 10.12, 8.94, 7.1, 6.2, 9.71, 12.46, 11.34, 11.09, 9.64, 8.85, 8.85, 12.87, 12.87, 12.87, 12.87, 12.87, 12.98, 12.7, 12.96, 12.79, 12.79, 12.65, 13.03, 13.74, 13.99, 13.99, 14.19, 14.19, 14.53, 14.53, 14.81, 15.18, 15.43, 15.43, 15.59, 15.59, 15.59, 15.6, 16.05, 16.5, 16.49, 16.54, 16.46, 16.22, 15.84, 15.54, 14.79, 14.79, 15.77, 15.77, 14.79, 13.42, 10.99, 8.69, 7.47, 7.13, 8.06, 9.42, 10.2, 9.97, 8.55, 8.8, 8.43, 8.43, 8.82, 8.93, 8.58, 8.58, 7.27, 4.83, 5.63, 6.98, 6.32, 2.97, 1.54, 4.6, 8.53, 9.67, 9.2, 9.83, 10.28, 11.09, 12.31, 12.52, 12.3, 12.56, 15.15, 18.16, 18.75, 17.36, 17.24, 15.55, 6.42, 6.43, 7.74, 6.3, 8.1, 12.71, 13.67, 11.9, 8.31, 7.58, 9.71, 11.42, 12.5, 11.8, 11.21, 9.76, 9.76, 12.87, 12.87, 12.87, 12.87, 12.87, 12.98, 12.7, 12.96, 12.79, 12.99, 12.56, 13.03, 13.34, 13.99, 14.39, 14.6, 14.19, 14.53, 14.53, 14.81, 15.25, 15.43, 15.46, 15.6, 15.6, 15.6, 15.15, 15.49, 15.93, 16.05, 16.09, 16.03, 15.78, 15.41, 15.36, 14.79, 15.06, 15.06, 14.57, 14.57, 13.18, 11.72, 10.25, 8.06, 6.59, 8.34, 10.24, 11.5, 11.5, 10.56, 9.43, 8.11, 8.3, 8.3, 8.82, 9.2, 9.38, 8.73, 7.59, 6.95, 6.98, 4.0, 1.2, 2.28, 6.64, 6.7, 6.5, 8.53, 8.4, 9.83, 10.96, 11.03, 13.05, 16.5, 13.99, 14.06, 15.03, 15.27, 17.8, 18.71, 19.6, 19.17, 15.52, 11.64, 10.3, 12.79, 13.53, 13.81, 12.17, 10.12, 9.57, 10.12, 11.93, 13.02, 12.65, 12.45, 10.43, 10.43, 12.45, 12.45, 12.87, 12.87, 12.87, 12.98, 12.98, 13.11, 12.96, 12.99, 13.19, 12.27, 13.34, 13.59, 13.99, 14.6, 14.6, 14.95, 14.95, 15.25, 15.25, 15.46, 15.46, 15.46, 15.46, 15.46, 15.05, 14.6, 15.05, 15.6, 16.09, 15.58, 15.34, 14.99, 14.94, 14.39, 14.18, 14.52, 13.95, 13.92, 13.55, 13.03, 11.12, 8.93, 7.44, 9.2, 11.6, 12.56, 12.07, 11.58, 10.04, 8.4, 8.4, 8.24, 8.63, 9.2, 9.38, 9.09, 8.24, 7.59, 6.64, 4.2, 2.83, 6.32, 6.32, 4.2, 4.4, 4.4, 7.27, 8.55, 8.18, 8.24, 10.81, 16.34, 19.73, 17.49, 14.41, 12.37, 13.11, 18.44, 20.56, 21.01, 18.33, 15.15, 15.49, 16.01, 15.65, 14.97, 12.56, 11.16, 10.02, 10.09, 11.09, 12.09, 12.82, 12.45, 11.29, 11.29, 12.45, 12.45, 12.45, 12.87, 12.87, 12.87, 12.98, 13.39, 13.11, 13.19, 13.39, 12.95, 12.65, 13.99, 13.99, 14.6, 14.6, 15.38, 15.38, 15.68, 15.68, 15.91, 15.46, 15.46, 15.49, 15.49, 14.86, 13.94, 15.99, 14.75, 15.65, 16.03, 16.01, 14.99, 14.53, 14.39, 13.8, 14.52, 14.52, 14.18, 14.18, 13.99, 12.39, 10.0, 9.55, 10.38, 11.8, 13.62, 12.39, 11.2, 9.2, 8.25, 8.25, 8.48, 8.91, 8.95, 8.99, 8.73, 8.24, 8.59, 6.7, 4.83, 5.1, 6.01, 6.32, 2.69, -0.0, 5.21, 8.03, 8.38, 7.68, 9.2, 11.5, 15.12, 19.42, 21.63, 15.44, 6.08, 9.17, 13.75, 18.52, 18.78, 17.38, 15.99, 16.49, 16.49, 16.94, 15.8, 13.65, 11.2, 9.84, 8.3, 10.3, 10.77, 12.09, 12.09, 11.29, 11.29, 12.45, 12.45, 12.45, 12.87, 12.87, 12.87, 12.98, 13.39, 13.39, 13.37, 13.56, 13.19, 12.95, 12.45, 13.99, 14.6, 14.6, 14.6, 14.95, 15.38, 15.68, 15.68, 15.91, 15.49, 15.05, 14.86, 14.86, 13.99, 13.7, 15.65, 14.75, 15.65, 16.03, 15.41, 14.39, 14.39, 14.39, 15.06, 14.79, 14.79, 14.79, 14.94, 13.28, 11.21, 9.96, 10.79, 12.18, 12.62, 12.62, 10.73, 8.67, 8.48, 8.48, 8.67, 9.11, 9.24, 8.99, 8.37, 8.73, 8.49, 6.98, 4.37, 5.21, 4.46, 2.69, 2.54, 3.6, 4.71, 8.8, 9.2, 8.37, 10.32, 11.62, 14.27, 19.14, 24.95, 18.37, 11.16, 2.54, 12.09, 15.94, 16.52, 16.08, 16.47, 16.87, 17.76, 17.77, 16.35, 13.88, 11.6, 7.82, 6.21, 9.17, 10.52, 11.9, 12.27, 11.29, 11.29, 12.45, 12.45, 12.45, 12.45, 12.87, 12.87, 12.87, 13.39, 13.39, 13.81, 13.7, 13.8, 13.19, 12.95, 13.59, 13.99, 14.6, 14.6, 14.95, 15.38, 15.68, 16.12, 15.91, 15.93, 14.9, 14.9, 14.9, 14.42, 14.71, 14.75, 14.75, 15.2, 15.43, 14.7, 14.39, 14.65, 14.65, 15.12, 15.54, 15.36, 15.36, 15.36, 14.11, 12.04, 10.79, 10.79, 11.62, 12.87, 13.02, 11.34, 9.33, 9.11, 9.28, 9.26, 9.7, 9.42, 9.4, 8.72, 7.81, 8.15, 6.97, 4.4, 4.0, 4.2, 3.8, 3.8, 4.83, 5.69, 7.51, 8.82, 7.87, 10.4, 12.07, 13.41, 17.88, 23.51, 20.44, 18.09, 16.04, 13.99, 14.74, 15.31, 16.52, 16.99, 16.9, 17.31, 17.76, 15.97, 13.25, 9.77, 4.48, 6.44, 9.62, 10.99, 12.11, 12.65, 11.72, 11.72, 12.56, 12.56, 12.45, 12.45, 12.87, 12.87, 12.87, 13.39, 13.81, 13.81, 14.23, 14.11, 13.8, 12.95, 12.95, 13.34, 13.59, 14.19, 14.53, 14.95, 15.68, 15.68, 15.68, 15.74, 15.34, 14.94, 14.9, 14.62, 14.75, 15.2, 15.2, 15.2, 14.75, 14.28, 14.24, 14.24, 15.12, 15.12, 15.54, 15.54, 15.36, 14.94, 14.11, 12.45, 11.21, 10.79, 11.62, 12.45, 12.85, 12.51, 10.58, 10.16, 9.72, 9.7, 9.68, 9.42, 9.55, 8.82, 8.12, 7.56, 6.76, 6.97, 4.2, 4.2, 4.2, 5.36, 5.69, 6.01, 6.98, 7.64, 7.76, 9.46, 12.14, 13.29, 15.65, 17.78, 19.77, 18.2, 18.98, 17.43, 14.05, 14.39, 15.98, 16.51, 16.09, 16.08, 15.93, 13.7, 10.47, 8.1, 6.44, 7.54, 9.77, 11.2, 11.99, 12.11, 12.27, 12.27, 12.56, 12.56, 12.45, 12.45, 12.87, 12.87, 13.28, 13.28, 13.81, 13.91, 14.23, 14.23, 14.11, 13.56, 13.39, 13.34, 13.59, 14.03, 14.19, 14.95, 15.04, 15.68, 15.68, 15.74, 15.34, 14.94, 15.08, 14.72, 14.75, 15.2, 15.2, 15.15, 14.37, 13.62, 13.43, 14.28, 14.84, 14.84, 15.27, 15.12, 15.12, 14.94, 13.99, 12.45, 11.21, 10.79, 11.56, 12.42, 13.15, 12.75, 11.46, 10.25, 9.8, 9.7, 9.49, 9.24, 9.36, 9.03, 8.42, 8.22, 7.85, 7.27, 5.9, 2.99, 4.71, 6.64, 6.7, 7.07, 6.32, 6.32, 7.59, 7.27, 11.16, 12.29, 14.4, 15.51, 17.1, 18.66, 20.1, 22.47, 19.22, 15.18, 12.0, 13.39, 13.86, 13.75, 12.87, 9.48, 8.1, 8.1, 9.17, 8.85, 9.77, 11.92, 11.85, 12.45, 12.39, 12.39, 12.14, 12.14, 12.45, 12.45, 12.87, 12.87, 13.28, 13.28, 13.81, 13.81, 14.33, 14.23, 14.23, 14.11, 13.89, 13.77, 13.34, 13.59, 14.03, 14.6, 15.04, 15.3, 15.74, 15.74, 15.51, 15.08, 15.17, 14.75, 14.75, 15.2, 15.2, 15.05, 14.1, 13.99, 13.99, 14.31, 14.31, 14.75, 14.84, 15.12, 15.12, 15.12, 14.11, 12.14, 9.55, 10.28, 11.13, 12.27, 12.71, 12.91, 12.03, 11.14, 10.14, 9.49, 9.24, 8.95, 9.36, 9.03, 8.47, 8.41, 8.53, 7.02, 5.9, 4.71, 4.71, 6.64, 5.69, 4.71, 4.0, 4.96, 4.2, 4.99, 9.5, 13.02, 15.35, 14.15, 14.71, 17.4, 20.56, 22.74, 20.66, 16.76, 14.99, 7.69, 13.15, 13.59, 11.88, 10.47, 10.47, 10.47, 10.12, 9.77, 10.73, 11.92, 12.58, 12.71, 12.92, 12.6, 12.14, 12.14, 12.56, 12.45, 12.87, 12.87, 13.28, 13.28, 13.81, 13.81, 14.33, 14.33, 14.23, 14.23, 14.42, 13.89, 13.77, 13.34, 13.59, 14.44, 14.6, 14.95, 15.04, 15.74, 15.34, 15.08, 14.72, 14.75, 14.75, 14.75, 15.17, 14.6, 14.1, 14.1, 14.1, 14.37, 13.88, 14.75, 14.42, 14.84, 14.7, 15.12, 13.7, 11.3, 9.24, 10.35, 11.4, 12.27, 13.15, 12.75, 12.35, 11.28, 10.18, 9.08, 8.95, 8.63, 9.03, 9.03, 9.16, 8.82, 7.95, 7.24, 6.44, 4.71, 5.69, 5.36, 3.8, 4.14, 3.8, 3.35, 2.17, 3.25, 7.73, 11.64, 16.34, 16.3, 13.65, 16.09, 19.01, 20.47, 18.33, 16.73, 17.37, 8.93, 0.0, 13.86, 12.39, 11.5, 11.99, 11.6, 12.3, 12.3, 11.87, 12.39, 12.52, 12.52, 12.52, 12.92, 12.14, 12.14, 12.14, 12.45, 12.87, 12.87, 13.28, 13.28, 13.7, 13.81, 14.23, 14.33, 14.23, 14.23, 14.51, 13.99, 13.99, 13.77, 14.03, 14.03, 14.44, 14.6, 14.6, 15.04, 15.34, 14.9, 14.72, 14.75, 14.3, 14.3, 14.72, 14.42, 14.1, 14.1, 13.99, 14.37, 13.94, 13.88, 14.75, 14.42, 14.7, 15.09, 14.23, 11.56, 10.05, 11.34, 13.37, 14.03, 14.03, 13.63, 12.51, 11.34, 9.9, 9.49, 8.8, 8.63, 9.03, 9.2, 9.58, 8.82, 9.08, 7.95, 5.46, 5.21, 4.96, 4.2, 3.8, 4.37, 3.35, 3.52, 2.46, 3.7, 7.26, 10.18, 13.05, 16.33, 17.73, 16.55, 16.58, 15.65, 15.34, 16.41, 17.81, 9.92, -6.8, 9.8, 13.41, 13.15, 12.79, 12.35, 12.35, 12.52, 12.52, 12.52, 12.44, 11.84, 11.76, 12.52, 12.14, 12.14, 12.14, 12.56, 12.45, 12.87, 12.56, 12.96, 12.96, 13.37, 13.81, 13.91, 14.33, 14.23, 13.81, 14.08, 14.25, 14.25, 14.1, 14.53, 14.03, 14.03, 14.03, 14.6, 15.04, 15.04, 14.62, 14.18, 14.27, 14.3, 14.27, 14.42, 14.37, 14.42, 13.99, 13.99, 13.94, 13.44, 13.88, 14.31, 14.31, 14.75, 13.8, 12.08, 11.44, 12.66, 14.66, 15.09, 14.23, 13.8, 13.37, 11.76, 10.08, 9.08, 8.95, 8.95, 9.36, 9.6, 9.2, 9.3, 9.08, 7.95, 7.51, 4.4, 5.21, 6.64, 4.37, 4.2, 2.33, 2.97, 3.7, 4.2, 6.44, 8.22, 9.48, 14.22, 17.37, 21.44, 20.32, 14.49, 13.99, 16.82, 19.35, 15.02, -4.01, 0.0, 12.3, 12.96, 12.96, 12.96, 12.52, 12.35, 11.87, 12.22, 12.08, 11.64, 11.21, 11.21, 11.72, 11.72, 12.14, 12.14, 12.45, 12.45, 12.56, 12.96, 12.96, 12.96, 13.81, 13.81, 13.91, 13.81, 13.81, 14.08, 14.31, 14.31, 14.47, 14.47, 14.86, 14.53, 14.53, 14.53, 14.53, 14.53, 14.42, 13.99, 14.18, 13.86, 13.82, 13.7, 14.14, 14.16, 14.16, 13.55, 13.5, 13.07, 13.44, 13.88, 13.88, 13.88, 13.44, 12.31, 11.91, 13.23, 14.55, 14.99, 14.07, 13.63, 12.94, 11.64, 9.49, 8.82, 9.24, 9.24, 9.6, 9.6, 10.0, 9.77, 9.67, 9.08, 7.56, 6.17, 5.46, 6.64, 5.21, 4.2, 2.69, 3.49, 4.2, 4.6, 7.59, 7.56, 9.62, 11.44, 16.8, 22.37, 23.95, 21.4, 18.51, 17.48, 19.83, 19.81, 14.51, -3.25, 3.96, 12.58, 12.71, 12.71, 11.62, 11.62, 11.2, 11.2, 11.34, 11.03, 11.03, 11.03, 11.72, 11.72, 12.14, 12.14, 12.56, 12.45, 12.56, 12.56, 12.39, 12.96, 12.96, 13.81, 13.91, 13.91, 14.08, 14.08, 14.25, 14.5, 14.5, 14.64, 15.08, 15.08, 15.07, 14.86, 14.86, 14.86, 14.42, 13.99, 13.72, 13.86, 13.37, 13.25, 13.25, 13.72, 14.16, 13.11, 13.11, 13.07, 13.07, 13.01, 13.67, 13.67, 13.23, 11.91, 11.58, 12.92, 14.26, 14.11, 13.19, 12.31, 11.88, 11.0, 9.06, 9.06, 9.24, 9.24, 9.96, 9.6, 9.77, 9.77, 10.16, 9.66, 8.53, 7.24, 7.27, 6.95, 5.21, 4.4, 2.83, 4.0, 4.6, 5.36, 5.86, 7.9, 9.09, 10.41, 12.81, 18.18, 20.24, 21.21, 20.68, 20.17, 22.66, 21.84, 19.2, 6.8, 0.0, 9.17, 12.04, 12.04, 11.62, 11.2, 10.48, 11.2, 11.03, 11.09, 11.09, 11.09, 11.72, 11.72, 12.14, 12.14, 12.56, 12.56, 12.98, 12.87, 12.96, 12.79, 13.28, 13.81, 13.81, 14.08, 14.08, 14.31, 14.5, 14.5, 14.64, 14.64, 15.08, 15.08, 15.08, 15.08, 15.07, 15.07, 14.62, 14.18, 13.82, 13.41, 13.37, 13.25, 13.37, 13.38, 13.28, 13.28, 12.68, 13.07, 13.07, 13.25, 13.25, 13.23, 12.79, 11.58, 11.14, 12.03, 13.36, 13.23, 13.23, 11.88, 11.02, 10.14, 8.8, 9.06, 9.49, 9.55, 9.55, 9.96, 10.21, 9.77, 9.77, 9.86, 9.16, 8.22, 8.53, 6.95, 6.32, 5.36, 4.83, 5.21, 5.21, 4.6, 5.21, 6.58, 7.59, 9.86, 11.77, 13.19, 16.64, 15.74, 18.41, 22.27, 24.74, 23.74, 19.43, 18.08, 16.09, 5.8, 7.78, 10.73, 11.12, 9.27, 10.19, 10.8, 10.35, 9.67, 9.67, 9.67, 11.72, 11.72, 12.14, 12.14, 12.14, 12.56, 12.56, 12.87, 13.28, 13.28, 13.28, 13.28, 14.08, 14.08, 14.31, 14.5, 14.5, 14.47, 14.5, 14.5, 14.64, 15.08, 15.08, 15.08, 15.08, 15.08, 14.64, 14.18, 13.86, 13.82, 13.25, 12.81, 12.93, 12.93, 12.93, 12.83, 12.83, 12.81, 13.25, 12.81, 12.81, 12.81, 12.93, 11.59, 11.14, 12.03, 12.92, 12.79, 12.79, 11.91, 11.02, 9.7, 8.63, 9.06, 9.49, 9.42, 9.85, 9.96, 10.21, 10.21, 9.77, 9.77, 10.24, 9.82, 7.15, 7.27, 6.32, 6.01, 6.64, 5.63, 4.83, 4.4, 4.2, 6.95, 8.24, 9.7, 11.62, 12.58, 13.02, 13.61, 16.14, 20.43, 24.82, 22.79, 20.13, 19.46, 17.43, 7.44, 0.0, 7.78, 10.01, 8.85, 8.53, 8.53, 8.22, 12.07, 12.07, 12.07, 11.72, 11.72, 12.14, 12.14, 12.56, 12.56, 12.56, 12.98, 12.87, 13.28, 13.28, 13.28, 13.99, 14.08, 14.31, 14.31, 14.5, 14.47, 14.47, 14.5, 14.5, 14.94, 14.94, 15.08, 15.08, 15.08, 14.64, 14.19, 13.86, 13.82, 13.25, 12.93, 12.93, 12.48, 12.48, 12.48, 12.39, 12.39, 12.81, 12.81, 12.81, 12.93, 12.93, 12.03, 11.14, 12.03, 12.35, 12.35, 12.35, 11.46, 10.58, 9.7, 8.63, 9.06, 9.49, 9.42, 9.85, 10.28, 10.21, 10.21, 9.8, 10.21, 9.86, 9.82, 8.22, 7.27, 7.44, 7.44, 5.46, 3.82, 3.11, 4.4, 6.14, 7.68, 8.93, 9.7, 10.24, 11.38, 10.85, 10.25, 13.96, 19.61, 23.25, 23.0, 21.56, 20.28, 15.97, 0.0, -5.8, 6.7, 5.6, 0.0, -8.53, -10.4, -11.62, 12.07, 12.07, 12.07, 11.72, 11.72, 12.14, 12.14, 12.14, 12.56, 12.98, 12.98, 12.87, 12.87, 13.28, 13.28, 13.57, 13.99, 13.99, 14.25, 14.25, 14.25, 14.25, 13.82, 14.03, 14.5, 14.94, 14.94, 14.94, 14.94, 14.5, 14.19, 13.86, 13.82, 13.37, 13.37, 12.93, 12.52, 12.48, 12.04, 12.04, 12.39, 12.39, 12.48, 12.48, 12.48, 12.48, 12.03, 11.14, 12.03, 12.47, 12.47, 12.03, 11.02, 10.58, 9.97, 9.11, 8.63, 9.06, 9.49, 9.85, 9.85, 9.96, 9.8, 9.8, 9.8, 10.4, 9.82, 8.93, 7.59, 7.81, 6.64, 5.46, 6.95, 8.55, 5.9, 8.82, 8.03, 7.27, 8.24, 9.46, 10.04, 10.12, 9.97, 11.68, 17.11, 19.34, 21.83, 22.44, 22.07, 17.01, 12.96, 0.0, 12.07, 12.07, -11.62, -11.03, -10.0, -8.53, 0.0, 0.0, 0.0, 11.72, 11.72, 12.14, 12.14, 12.14, 12.65, 12.98, 12.98, 12.87, 13.15, 13.15, 13.15, 13.7, 13.99, 13.99, 13.99, 13.99, 14.25, 14.25, 14.25, 14.25, 14.5, 14.94, 14.94, 14.94, 14.5, 14.5, 14.18, 13.86, 13.37, 13.37, 13.41, 12.96, 12.52, 12.52, 12.04, 12.04, 12.04, 12.04, 12.48, 12.52, 12.52, 12.52, 12.03, 11.59, 12.48, 12.93, 12.48, 11.59, 10.58, 10.14, 9.7, 9.7, 9.26, 9.24, 9.49, 9.42, 9.85, 9.85, 10.18, 10.18, 9.8, 10.0, 10.8, 9.67, 8.58, 7.87, 6.64, 7.87, 8.4, 9.54, 8.18, 8.23, 6.7, 5.95, 6.87, 7.9, 8.82, 8.85, 9.17, 10.73, 13.46, 16.94, 19.7, 23.14, 25.15, 12.87, -12.58, -3.25, 4.81, 8.53, 8.53, 12.52, 12.96, 12.52, 12.96, 12.96, 12.96, 11.72, 11.72, 12.14, 12.14, 12.14, 12.65, 13.07, 12.98, 12.87, 13.28, 13.15, 13.15, 13.56, 13.7, 13.99, 13.99, 13.99, 13.99, 13.99, 14.25, 14.25, 14.31, 14.75, 14.94, 14.5, 14.31, 14.5, 14.18, 13.86, 13.82, 13.41, 13.41, 12.96, 12.52, 12.52, 12.07, 12.04, 12.04, 12.07, 12.07, 12.07, 12.07, 12.07, 12.03, 12.03, 12.48, 12.93, 12.48, 11.58, 10.58, 10.14, 9.7, 9.7, 8.8, 9.24, 9.24, 9.68, 9.42, 9.42, 9.85, 9.75, 9.75, 10.05, 10.4, 10.48, 10.4, 9.2, 8.18, 8.23, 8.8, 7.87, 6.64, 6.64, 3.82, 5.95, 7.15, 7.9, 7.56, 8.53, 10.23, 11.31, 11.16, 13.54, 18.57, 25.57, 23.01, 13.56, -8.85, -5.28, 4.87, 9.8, 10.3, 9.48, 9.8, 8.05, 7.78, 7.78, 7.78, 11.72, 11.72, 11.72, 12.14, 12.14, 12.14, 12.65, 12.98, 12.98, 13.28, 13.15, 13.56, 13.56, 13.56, 13.56, 13.99, 13.99, 13.99, 13.99, 13.99, 14.25, 14.25, 14.31, 14.31, 14.31, 14.31, 14.5, 14.27, 13.86, 13.86, 13.41, 13.41, 12.96, 12.96, 12.52, 12.07, 12.07, 11.62, 11.62, 11.62, 12.07, 12.07, 12.07, 11.62, 12.07, 12.52, 12.93, 12.48, 11.91, 11.02, 10.14, 9.7, 9.7, 8.82, 9.24, 9.24, 9.24, 9.64, 9.42, 9.42, 9.85, 9.75, 10.18, 10.46, 11.3, 10.68, 9.6, 9.75, 8.82, 7.68, 6.64, 7.33, 6.64, 3.11, 6.17, 5.95, 6.5, 6.76, 8.82, 10.94, 11.6, 11.8, 13.05, 17.29, 29.4, 22.3, 12.52, -9.82, -8.85, -0.0, 8.57, 9.42, 8.31, 6.88, 7.79, 8.59, 8.59, 8.59, 11.62, 11.62, 11.72, 12.14, 12.14, 12.14, 12.56, 13.07, 12.98, 13.28, 13.15, 13.56, 13.56, 13.56, 13.56, 13.89, 13.99, 13.99, 13.99, 13.99, 13.99, 14.25, 14.25, 14.31, 14.31, 14.31, 14.06, 14.27, 13.86, 13.41, 13.41, 12.96, 12.96, 12.96, 12.52, 12.07, 12.07, 11.62, 11.62, 11.62, 11.62, 11.62, 11.62, 11.62, 11.62, 11.59, 11.93, 11.93, 11.93, 11.05, 10.6, 10.14, 9.7, 9.26, 8.82, 8.8, 9.24, 9.24, 9.21, 9.64, 9.64, 10.04, 10.04, 10.91, 11.28, 11.71, 11.84, 10.84, 9.2, 8.43, 8.18, 8.55, 6.42, 2.1, 2.49, 4.8, 6.2, 7.9, 9.09, 10.4, 10.8, 11.76, 13.75, 24.88, 29.85, 20.96, 9.42, -12.14, -11.12, -6.2, 4.05, 7.59, 8.85, 8.58, 9.13, 9.13, 9.13, 9.13, 11.62, 11.62, 11.72, 11.72, 12.14, 12.14, 12.56, 12.65, 12.98, 12.98, 13.28, 13.15, 13.56, 13.56, 13.56, 13.89, 13.89, 13.99, 13.99, 14.42, 13.99, 14.25, 14.25, 14.25, 14.31, 13.88, 14.18, 14.3, 13.86, 13.41, 13.41, 12.96, 12.96, 12.52, 12.52, 12.07, 12.07, 11.62, 11.62, 11.18, 11.62, 11.62, 11.62, 11.62, 11.14, 11.05, 11.49, 11.49, 11.49, 11.05, 10.6, 10.14, 9.8, 9.8, 9.36, 8.91, 8.8, 8.8, 9.21, 9.21, 9.21, 9.64, 10.04, 10.47, 10.91, 11.28, 11.71, 10.75, 9.2, 9.54, 9.33, 9.2, 6.7, 3.98, 4.15, 5.52, 7.9, 8.59, 9.48, 9.6, 10.21, 11.76, 20.95, 23.71, 29.4, 20.28, -16.99, -13.77, -10.47, -7.13, 1.63, 6.6, 7.59, 8.2, 9.5, 10.12, 10.12, 10.12, 11.62, 11.62, 11.72, 11.72, 11.72, 12.14, 12.56, 12.98, 13.07, 12.98, 12.87, 13.15, 13.56, 13.56, 13.56, 13.89, 13.89, 13.89, 13.99, 14.42, 14.42, 14.25, 14.25, 14.25, 13.88, 14.03, 14.27, 13.86, 13.86, 13.41, 13.41, 12.96, 12.96, 12.52, 12.52, 12.04, 12.04, 11.59, 11.59, 11.15, 11.18, 11.62, 11.62, 11.14, 11.05, 10.6, 10.6, 10.6, 10.6, 10.6, 10.6, 10.25, 9.8, 9.8, 9.8, 9.36, 8.91, 8.9, 8.8, 9.34, 9.34, 9.34, 9.64, 10.22, 11.11, 11.55, 11.28, 10.75, 9.96, 9.64, 9.33, 9.2, 8.23, 6.44, 7.59, 7.27, 7.9, 8.59, 9.48, 10.21, 10.62, 11.34, 18.55, 24.6, 28.59, 20.27, -13.99, -13.41, -11.53, -5.02, 1.34, 6.18, 8.43, 9.92, 10.12, 10.12, 10.12, 10.12, 11.62, 11.62, 11.62, 11.72, 11.72, 11.72, 12.14, 12.56, 12.65, 12.56, 12.87, 13.15, 13.47, 13.89, 13.89, 13.89, 13.89, 13.89, 13.89, 14.42, 14.42, 14.69, 14.69, 14.25, 13.82, 14.18, 14.3, 13.86, 13.86, 13.41, 12.96, 12.96, 12.48, 12.48, 12.48, 12.04, 12.04, 11.59, 11.15, 11.18, 11.18, 11.18, 11.14, 11.05, 10.6, 10.6, 10.6, 10.6, 10.16, 10.25, 10.25, 10.25, 10.25, 9.8, 9.8, 9.36, 9.36, 8.9, 8.9, 8.9, 9.35, 9.34, 9.79, 10.23, 10.66, 11.11, 10.84, 10.84, 9.89, 9.64, 9.75, 9.75, 9.96, 9.3, 10.0, 9.97, 9.83, 9.75, 9.86, 10.05, 10.21, 12.72, 15.55, 23.12, 27.15, 30.29, 16.35, -12.04, -12.87, -3.58, 1.26, 5.99, 9.25, 10.75, 10.92, 11.07, 11.07, 11.07, 11.62, 11.62, 11.62, 11.72, 12.14, 12.14, 12.14, 12.14, 12.65, 12.56, 12.87, 13.15, 13.47, 13.56, 13.56, 13.89, 13.89, 13.89, 13.89, 13.89, 14.42, 14.69, 14.69, 13.99, 14.03, 14.27, 14.3, 13.86, 13.41, 13.41, 12.93, 12.48, 12.48, 12.48, 12.04, 12.04, 12.04, 11.59, 11.62, 11.18, 11.18, 11.14, 11.14, 11.05, 10.6, 10.6, 10.7, 10.25, 10.25, 10.25, 10.25, 10.25, 10.25, 9.8, 9.8, 9.8, 9.36, 8.91, 8.9, 8.9, 8.9, 9.34, 9.79, 10.23, 10.23, 10.66, 10.66, 10.41, 9.89, 9.97, 10.08, 10.62, 10.18, 10.38, 9.96, 10.08, 9.83, 9.83, 9.75, 9.86, 10.21, 11.71, 14.16, 18.55, 24.3, 30.28, 27.08, 16.54, 13.99, -0.0, 2.98, 6.8, 10.57, 12.02, 11.8, 11.93, 11.93, 11.93, 11.34, 11.34, 11.34, 11.47, 12.14, 12.14, 12.14, 12.65, 12.65, 12.56, 12.87, 12.74, 13.15, 13.56, 13.56, 13.7, 13.99, 13.99, 13.89, 14.31, 14.42, 14.42, 14.42, 14.25, 14.16, 14.3, 13.86, 13.86, 13.41, 12.93, 12.93, 12.48, 12.48, 12.04, 12.04, 12.04, 11.59, 11.62, 11.62, 11.18, 11.15, 11.14, 11.14, 10.7, 10.7, 10.7, 10.7, 10.25, 10.25, 10.25, 10.25, 9.81, 10.25, 9.81, 9.8, 9.8, 9.36, 9.36, 8.91, 8.46, 8.9, 8.9, 9.35, 9.79, 9.79, 9.79, 10.22, 9.97, 9.89, 10.41, 10.73, 10.62, 10.32, 10.6, 9.2, 8.82, 6.95, 5.63, 8.43, 9.6, 10.6, 11.46, 13.82, 16.99, 21.9, 24.53, 24.81, 21.01, 14.92, 11.69, 8.29, 8.43, 11.63, 13.02, 12.82, 12.74, 12.74, 12.74, 11.34, 11.34, 11.34, 11.47, 11.88, 11.88, 11.88, 12.65, 12.65, 12.56, 12.87, 12.74, 13.15, 13.15, 13.56, 13.57, 13.57, 13.99, 13.99, 13.99, 14.42, 14.42, 14.42, 14.42, 14.16, 13.86, 13.86, 13.82, 13.38, 12.83, 12.83, 12.39, 12.39, 12.04, 12.04, 12.04, 12.07, 11.62, 11.62, 11.15, 11.15, 11.15, 10.73, 10.73, 10.73, 10.73, 10.28, 10.28, 10.28, 10.28, 10.28, 9.83, 9.83, 9.83, 9.83, 9.39, 9.36, 9.36, 9.36, 8.91, 8.46, 8.46, 8.94, 8.9, 9.34, 9.34, 9.77, 9.76, 9.76, 9.76, 9.83, 10.73, 10.65, 9.89, 9.2, 8.03, 6.42, 6.14, 8.8, 10.05, 10.96, 11.59, 13.41, 16.54, 20.56, 22.35, 22.29, 18.73, 14.79, 13.76, 12.57, 11.06, 12.22, 13.58, 13.51, 14.21, 14.21, 14.21, 11.34, 11.34, 11.34, 11.34, 11.47, 11.88, 11.88, 12.14, 12.65, 12.56, 12.87, 12.74, 13.15, 13.47, 13.47, 13.57, 13.57, 13.57, 13.99, 13.99, 13.99, 14.42, 14.42, 14.25, 14.16, 13.82, 13.82, 13.28, 13.28, 12.83, 12.83, 12.39, 12.04, 12.04, 12.04, 12.07, 12.07, 11.62, 11.62, 11.62, 11.18, 11.18, 11.18, 10.73, 10.73, 10.73, 10.28, 10.28, 10.28, 10.28, 9.83, 9.83, 9.83, 9.83, 9.83, 9.39, 9.36, 8.91, 9.36, 8.91, 8.91, 8.49, 8.49, 8.9, 8.9, 9.34, 9.34, 9.33, 9.32, 9.83, 9.83, 11.18, 11.18, 11.02, 8.8, 8.03, 6.42, 8.03, 9.2, 10.41, 10.96, 12.03, 13.38, 16.09, 20.12, 21.83, 19.4, 17.04, 14.68, 14.62, 13.76, 13.55, 13.38, 14.09, 14.59, 14.33, 14.33, 14.33, 11.34, 11.34, 11.75, 11.75, 11.88, 11.88, 11.88, 12.14, 12.22, 12.56, 12.45, 12.74, 13.47, 13.47, 13.47, 13.57, 13.57, 13.57, 13.57, 13.99, 13.99, 13.99, 13.99, 14.25, 14.16, 13.72, 13.72, 13.28, 13.28, 12.83, 12.83, 12.39, 12.04, 12.04, 12.04, 11.62, 11.62, 11.62, 11.62, 11.18, 11.18, 11.18, 11.18, 10.73, 10.73, 10.73, 10.73, 10.28, 10.28, 10.28, 9.83, 9.83, 9.83, 9.83, 9.39, 9.39, 9.39, 8.91, 8.91, 8.91, 8.91, 8.49, 8.49, 8.49, 8.9, 8.9, 8.9, 9.33, 9.39, 9.39, 9.83, 9.83, 9.79, 11.46, 8.82, 7.27, 6.42, 8.03, 9.2, 10.41, 10.96, 11.49, 12.85, 15.11, 19.13, 20.67, 19.41, 16.29, 15.35, 15.01, 14.47, 13.92, 14.33, 14.47, 14.59, 14.18, 14.18, 14.18, 11.34, 11.34, 11.75, 11.75, 11.88, 11.88, 11.88, 12.14, 12.22, 12.56, 12.45, 12.74, 13.47, 13.47, 13.47, 13.57, 13.57, 13.57, 13.57, 13.99, 13.99, 13.99, 13.99, 14.25, 14.16, 13.72, 13.72, 13.28, 13.28, 12.83, 12.83, 12.39, 12.04, 12.04, 12.04, 11.62, 11.62, 11.62, 11.62, 11.18, 11.18, 11.18, 11.18, 10.73, 10.73, 10.73, 10.73, 10.28, 10.28, 10.28, 9.83, 9.83, 9.83, 9.83, 9.39, 9.39, 9.39, 8.91, 8.91, 8.91, 8.91, 8.49, 8.49, 8.49, 8.9, 8.9, 8.9, 9.33, 9.39, 9.39, 9.83, 9.83, 9.79, 11.46, 8.82, 7.27, 7.27, 8.03, 9.2, 10.41, 10.96, 11.02, 11.96, 14.09, 16.76, 19.25, 19.7, 17.85, 15.76, 15.59, 14.95, 14.85, 15.09, 15.45, 14.56, 13.99, 13.99, 13.99]}, {"header": {"dx": 0.06612293990616946, "dy": 0.0552356325346848, "nx": 98, "ny": 59, "la1": 35.046912555036876, "la2": 31.78801023549047, "lo1": -121.43107172385933, "lo2": -114.95102361305473, "refTime": "2026041204", "parameterCategory": 1, "parameterNumber": 3}, "data": [-2.24, -2.43, -1.23, -1.23, -1.34, -1.34, -1.47, 0.0, 0.0, 0.0, 0.0, 0.0, 2.06, 4.15, 4.6, 5.95, 5.95, 4.8, 3.39, 2.6, 5.0, 4.32, 2.6, 2.33, 3.77, 5.54, 6.98, 7.59, 7.9, 7.27, 7.27, 7.27, 6.98, 3.35, 0.0, -6.64, -9.2, -8.0, -6.8, -3.6, 4.71, 6.95, 8.22, 7.78, 7.36, 7.0, 7.08, 9.95, 11.0, 10.6, 9.17, 9.17, 9.17, 8.61, 9.21, 8.23, 7.69, 6.9, 6.9, 6.0, 4.98, 3.85, 3.73, 4.55, 5.11, 6.65, 6.88, 6.73, 6.6, 6.02, 5.62, 4.66, 3.53, 2.37, 2.45, 2.24, 2.06, 1.77, 0.0, 0.0, 0.0, 0.0, 0.0, -1.69, -2.82, -2.23, -2.6, -3.53, -4.32, -5.4, -7.54, -10.01, -8.85, 0.0, 12.96, 12.79, 11.92, 10.3, -2.18, -2.43, -2.43, -2.64, -1.34, -1.34, -1.51, -1.51, 0.0, 0.0, 0.0, 0.0, 0.0, 2.1, 5.2, 5.0, 3.25, 3.68, 3.39, 2.02, 2.93, 4.48, 4.48, 5.98, 5.95, 6.7, 6.42, 6.58, 7.59, 8.59, 10.16, 10.8, 10.79, 7.21, 8.05, 3.8, -3.6, -7.2, -8.49, 6.32, 9.64, 10.79, 9.17, 8.31, 7.4, 7.26, 7.99, 9.95, 10.19, 8.83, 8.54, 8.54, 7.96, 8.1, 8.38, 8.51, 7.44, 6.9, 6.0, 5.55, 4.58, 3.41, 4.1, 5.8, 8.1, 7.19, 7.79, 7.69, 7.82, 7.2, 6.52, 5.78, 3.47, 2.32, 1.29, 1.29, 1.13, 1.77, 0.0, 0.0, 0.0, 0.0, 0.0, -1.69, -2.82, -2.23, -2.6, -3.53, -4.32, -5.4, -7.54, -10.01, -8.85, 0.0, 12.96, 12.79, 11.92, 10.3, -2.18, -2.43, -2.43, -2.64, -2.64, -1.34, -1.51, -1.51, -1.68, 0.0, 0.0, 0.0, 0.0, 2.28, 2.6, 3.39, 2.71, 0.0, 0.0, 0.0, 1.84, 2.28, 4.32, 9.42, 9.62, 7.27, 6.95, 5.46, 6.95, 10.52, 11.84, 12.37, 12.03, 8.87, 6.65, 8.49, 7.81, -0.0, 0.0, 10.28, 11.53, 12.39, 10.47, 8.68, 7.99, 8.17, 9.0, 9.09, 7.79, 7.78, 8.54, 8.23, 7.96, 7.96, 7.68, 7.44, 6.9, 6.0, 4.58, 4.58, 3.53, 2.54, 5.8, 9.17, 10.12, 9.17, 8.54, 9.21, 8.94, 8.43, 7.4, 6.31, 3.52, 1.21, 0.0, 0.0, 0.0, 0.0, 0.0, -1.11, -1.44, 0.0, -1.84, -3.25, -4.05, -3.25, -4.18, -4.4, -5.4, -6.7, -9.8, -11.44, -9.48, 9.48, 12.96, 12.79, 12.14, 11.64, -3.22, -2.35, -2.43, -2.64, -2.64, -2.89, -2.98, -1.68, -1.63, -1.53, -1.33, -1.18, 0.0, 2.19, 2.71, 0.0, 0.0, 0.0, 0.0, 0.0, 0.0, 0.0, 6.2, 8.93, 7.59, 7.9, 7.27, 8.8, 9.39, 10.08, 11.18, 11.62, 11.57, 10.73, 9.03, 8.4, 9.13, 9.3, 8.22, 13.41, 15.47, 15.28, 12.51, 9.71, 7.8, 7.4, 7.54, 5.99, 7.28, 8.44, 7.68, 7.78, 7.78, 8.24, 7.51, 7.19, 5.8, 4.58, 3.53, 2.4, 2.32, 3.56, 10.01, 11.6, 10.99, 10.79, 9.69, 9.92, 10.43, 10.18, 9.42, 7.8, 5.37, 3.0, 0.0, -2.93, -3.47, -2.81, -1.04, -2.2, -2.82, -1.98, -1.91, -4.15, -6.71, -8.22, -7.26, -6.7, -8.01, -9.8, -11.06, -8.18, 0.0, 11.6, 12.96, 12.86, 13.01, 12.33, -3.22, -3.47, -3.58, -2.64, -2.64, -2.89, -2.98, -3.3, -1.63, -1.53, -2.62, -1.18, 0.0, 0.0, 0.0, 0.0, 0.0, 0.0, 0.0, 0.0, 0.0, 6.2, 8.93, 9.67, 8.38, 8.73, 10.0, 10.38, 11.18, 9.83, 10.18, 10.18, 11.18, 11.4, 10.0, 8.94, 7.9, 6.67, 7.0, 18.33, 19.03, 14.78, 12.0, 10.02, 9.17, 8.53, 7.85, 7.28, 7.28, 7.54, 7.54, 8.44, 8.15, 8.24, 6.94, 5.8, 4.43, 3.53, 2.4, 1.21, 1.61, 7.19, 13.15, 13.44, 12.39, 11.69, 10.85, 10.85, 10.73, 10.75, 10.61, 9.75, 9.16, 7.94, 3.36, -1.11, -5.6, -5.6, -3.76, -2.11, -4.58, -5.4, -5.2, -6.97, -10.4, -11.21, -10.41, -10.55, -10.18, -12.73, -9.12, 0.0, 7.19, 11.6, 12.96, 12.96, 13.31, 13.01, -3.22, -3.22, -3.47, -3.58, -3.88, -4.24, -2.98, -3.2, -3.2, -3.01, -2.62, -2.49, 0.0, 0.0, 0.0, 0.0, 0.0, 0.0, 0.0, 0.0, 2.45, 8.53, 11.99, 11.6, 10.8, 11.21, 11.03, 10.27, 10.75, 11.02, 9.39, 9.39, 9.54, 11.45, 11.16, 9.48, 7.19, 4.87, 6.47, 18.78, 16.09, 13.57, 10.73, 10.56, 10.12, 10.01, 8.85, 8.32, 8.15, 8.01, 8.53, 8.15, 8.15, 7.51, 5.8, 4.43, 2.13, 1.17, 1.11, 0.0, 2.54, 12.52, 13.41, 14.03, 14.28, 13.78, 12.27, 10.38, 10.38, 9.36, 8.43, 7.95, 9.29, 8.78, 7.53, 4.6, -1.83, -7.51, -5.4, -1.71, -10.04, -9.66, -8.53, -9.3, -11.4, -11.71, -11.99, -13.28, -13.99, -12.16, 0.0, 2.63, 8.05, 11.62, 12.52, 12.96, 13.41, 13.31, -3.22, -4.21, -4.52, -3.58, -3.88, -4.24, -4.24, -3.2, -3.1, -4.38, -3.82, -2.39, 0.0, 0.0, 0.0, 0.0, 0.0, 0.0, -2.45, 0.0, 5.8, 11.9, 10.43, 13.02, 14.75, 14.31, 14.9, 13.28, 12.04, 9.86, 10.52, 9.39, 9.83, 9.83, 11.28, 11.09, 8.94, 7.13, 7.13, 13.01, 13.57, 12.96, 12.72, 11.16, 12.0, 10.03, 9.17, 8.01, 8.53, 8.85, 8.85, 7.85, 7.51, 6.08, 3.6, 2.32, 0.0, 0.0, -1.17, -1.43, 0.0, 12.52, 13.86, 14.47, 14.7, 14.29, 12.87, 11.3, 8.94, 6.4, 4.66, 4.53, 4.54, 3.89, 3.89, 4.12, 2.24, 0.0, 0.0, -6.45, -10.8, -10.68, -10.4, -10.0, -10.91, -11.93, -14.11, -15.27, -14.53, -4.38, 0.0, 3.14, 11.99, 12.79, 12.35, 12.96, 13.41, 13.41, -4.08, -4.21, -4.52, -4.89, -5.04, -4.24, -4.66, -4.66, -4.52, -4.24, -3.53, -3.45, -2.02, 0.0, 0.0, 0.0, 0.0, 0.0, 0.0, 0.0, 4.24, 6.0, 0.0, 0.0, 15.2, 13.59, 15.65, 15.27, 12.27, 11.99, 11.71, 12.07, 12.52, 11.87, 10.0, 6.94, 5.8, 3.53, 4.32, 8.22, 12.96, 13.86, 13.39, 12.01, 11.38, 9.16, 8.37, 9.48, 10.3, 11.16, 8.82, 8.53, 6.63, 3.6, 1.25, 0.0, -1.13, -2.72, -4.24, -4.65, 0.0, 12.96, 13.86, 14.07, 14.28, 14.13, 11.91, 8.68, 5.85, 2.24, 0.0, 0.0, 0.0, -0.98, 0.0, 0.0, 1.95, 3.65, 1.38, -2.02, -8.68, -11.09, -10.46, -11.13, -12.02, -13.41, -14.22, -12.27, 0.0, 0.0, 0.0, 8.85, 13.15, 13.15, 13.15, 13.41, 13.41, 13.41, -3.81, -4.21, -4.52, -4.89, -5.04, -5.48, -4.66, -4.66, -4.52, -5.27, -4.72, -5.2, -3.14, 0.0, 0.0, 0.0, 0.0, 0.0, 0.0, 0.0, 6.0, 9.48, 0.0, -14.3, 0.0, 11.18, 9.83, 9.8, 11.06, 13.57, 13.86, 15.2, 15.2, 9.8, 6.94, 3.68, 0.0, 0.0, 3.25, 7.27, 12.3, 12.27, 10.43, 6.94, 4.32, 5.54, 8.85, 11.09, 11.34, 10.58, 10.09, 8.53, 7.24, 4.24, 1.5, 0.0, -1.44, -3.19, -8.22, -13.01, 0.0, 13.41, 12.88, 13.63, 13.28, 12.0, 9.73, 6.34, 2.21, -1.05, -2.09, -2.72, -2.98, -2.89, -3.0, -2.18, 0.0, 0.0, 0.0, 0.0, -1.5, -12.79, -9.96, -11.18, -11.51, -11.71, -4.1, 3.14, 2.19, 0.0, 0.0, 11.87, 12.52, 13.86, 13.59, 13.86, 13.86, 13.41, -4.66, -4.97, -5.5, -5.92, -5.48, -5.48, -4.66, -4.66, -5.81, -4.81, -4.65, -5.27, -4.75, -1.9, 0.0, 0.0, -4.52, -4.66, 0.0, 0.0, 0.0, 0.0, 0.0, 0.0, 0.0, 0.0, 0.0, 10.73, 10.43, 12.79, 10.43, 0.0, 0.0, 0.0, 0.0, 3.53, 0.0, 4.2, 9.67, 9.17, 9.17, 7.78, 5.2, 2.49, 2.82, 5.54, 8.82, 9.66, 9.69, 9.92, 9.96, 11.03, 11.31, 10.79, 9.27, 9.08, 9.97, 9.67, -11.62, -12.72, 14.3, 14.11, 14.47, 13.44, 12.79, 10.75, 5.5, 4.01, 0.0, -3.12, -5.73, -5.62, -4.81, -4.34, -3.47, -3.22, -5.19, -5.31, -3.68, -2.01, -1.16, -1.83, -10.73, -7.59, -3.82, 0.0, 4.05, 4.05, 2.19, 0.0, 0.0, 12.07, 12.96, 13.41, 13.86, 13.86, 13.86, 13.41, -4.66, -4.97, -5.5, -6.1, -6.6, -5.99, -5.99, -5.99, -5.81, -4.98, -5.8, -5.63, -6.2, -3.81, -2.81, -2.81, -3.79, -3.07, 0.0, 0.0, 0.0, 0.0, 0.0, 0.0, 0.0, 0.0, 0.0, 7.27, 12.96, 0.0, -5.8, -11.6, -12.07, -7.9, 0.0, 5.4, 10.4, 11.28, 10.8, 9.8, 7.36, 6.0, 5.2, 2.71, 3.98, 7.27, 8.93, 8.59, 7.15, 8.49, 11.77, 13.39, 14.15, 14.64, 14.53, 15.09, 14.97, 12.38, 8.53, 11.6, 13.8, 14.47, 13.99, 13.99, 12.45, 10.75, 9.47, 9.12, 8.29, 2.54, 0.0, -1.61, -1.58, -3.1, -4.38, -6.2, -7.93, -7.78, -7.51, -5.55, -3.69, 0.0, 4.81, 0.0, 1.44, 4.8, 4.18, 3.77, 4.23, 2.71, 5.0, 8.53, 12.52, 12.3, 13.41, 13.41, 13.41, 12.96, -4.38, -4.66, -5.5, -6.1, -7.16, -5.99, -5.99, -5.99, -5.31, -4.98, -6.0, -6.2, -6.6, -5.63, -3.68, -3.44, -3.44, -2.09, 0.0, 0.0, 0.0, 0.0, -3.07, 0.0, 0.0, 0.0, 0.0, 1.32, 0.0, 0.0, -3.39, -5.2, -5.2, -4.4, 0.0, 6.17, 8.93, 10.8, 8.85, 7.44, 7.13, 6.9, 5.4, 5.0, 7.27, 8.05, 9.6, 9.96, 10.38, 11.02, 11.93, 12.85, 14.21, 16.0, 16.0, 16.34, 15.94, 12.41, 8.67, 11.6, 14.18, 14.31, 13.77, 13.19, 12.65, 13.97, 15.99, 17.28, 18.45, 16.84, 12.52, 9.62, 6.96, 5.27, 0.0, -8.31, -10.82, -10.47, -8.24, -8.23, -4.38, 2.63, 4.93, 6.6, 6.08, 6.96, 6.24, 4.6, 5.69, 6.24, 5.95, 5.95, 11.18, 11.45, 12.52, 12.52, 12.35, 12.42, -4.38, -4.66, -5.14, -6.1, -7.16, -7.16, -7.16, -5.81, -6.4, -5.73, -5.73, -6.4, -5.99, -5.99, -6.16, -5.99, -3.47, -3.25, -1.61, -1.66, 0.0, 0.0, -1.9, -1.9, 0.0, 0.0, 1.33, 2.4, 1.09, 0.0, -2.1, -2.82, 0.0, -2.71, 0.0, 8.18, 9.55, 8.94, 6.45, 5.4, 5.6, 5.6, 7.24, 7.27, 9.33, 9.54, 10.08, 10.52, 11.02, 11.02, 10.68, 11.18, 12.07, 12.52, 14.19, 15.18, 13.19, 11.77, 6.84, 10.79, 13.83, 12.89, 12.79, 12.45, 13.25, 14.93, 18.21, 20.78, 21.38, 22.25, 17.17, 13.1, 9.82, 6.94, 4.9, 0.0, -13.86, -13.88, -9.48, -6.94, -1.91, 2.28, 3.96, 4.71, 7.78, 8.2, 7.21, 5.99, 6.59, 6.15, 5.64, 5.98, 7.9, 11.62, 12.07, 12.07, 11.91, 12.0, -4.38, -4.38, -4.97, -5.92, -6.6, -6.95, -6.95, -6.95, -6.4, -5.92, -5.92, -5.92, -6.6, -6.8, -6.34, -6.34, -5.65, -4.81, -3.2, -3.1, -1.77, -1.77, -1.83, -1.94, -1.94, 0.0, 0.0, 0.0, 0.0, 0.0, -1.05, -1.91, -2.93, 0.0, 4.6, 9.54, 8.91, 8.55, 5.7, 5.95, 6.45, 6.2, 7.9, 10.0, 9.54, 9.64, 8.49, 9.83, 10.52, 10.41, 10.73, 10.73, 13.41, 13.86, 11.6, 8.53, 8.53, 7.93, 6.95, 10.21, 12.96, 13.15, 12.45, 13.27, 12.89, 14.18, 16.26, 17.28, 17.85, 13.62, 14.5, 10.22, 7.32, 4.33, 1.16, 0.0, 15.65, 10.75, 3.58, 2.43, 1.66, 2.45, 1.04, 1.19, 5.6, 4.98, 5.14, 6.2, 6.41, 6.15, 5.28, 4.99, 5.75, 10.4, 10.73, 11.62, 11.62, 11.62, -4.38, -4.38, -4.66, -5.5, -6.4, -6.95, -7.58, -6.95, -6.4, -5.92, -5.92, -6.1, -6.6, -6.17, -5.65, -5.81, -5.81, -3.59, -3.49, -3.39, -1.68, -1.68, -1.94, 0.0, 0.0, 0.0, 0.0, 0.0, 0.0, 0.0, -1.15, -2.45, -2.37, 0.0, 9.2, 9.54, 9.97, 7.81, 7.9, 5.7, 7.59, 9.67, 8.93, 9.6, 9.11, 9.11, 9.11, 9.39, 8.67, 9.33, 9.75, 9.75, 8.8, 6.01, 0.0, -6.32, -8.8, 0.0, 5.18, 10.87, 11.57, 11.28, 11.3, 11.3, 11.3, 12.14, 12.98, 12.33, 10.47, 8.43, 9.49, 8.06, 4.05, 0.0, -1.58, 8.05, 13.97, 11.06, 8.05, 7.49, 5.46, 3.81, 1.77, 0.96, -1.5, 0.0, 1.25, 4.58, 4.99, 5.86, 5.0, 4.44, 5.54, 10.0, 11.18, 11.62, 11.62, 11.62, -4.38, -4.38, -4.66, -5.14, -5.92, -6.95, -7.58, -7.93, -6.4, -5.92, -6.1, -5.67, -6.1, -5.64, -7.0, -5.65, -4.01, -3.69, -3.69, -1.65, -1.6, 0.0, 0.0, 0.0, 0.0, 0.0, 0.0, 0.0, 0.0, 0.0, -1.26, -2.72, -3.01, 0.0, 9.75, 8.77, 9.64, 8.8, 9.3, 8.93, 8.55, 8.93, 8.93, 8.8, 8.4, 9.11, 9.11, 8.67, 8.48, 8.06, 7.44, 6.32, 2.83, 4.0, 0.0, 0.0, 0.0, 2.39, 9.08, 10.68, 9.75, 9.6, 8.93, 8.93, 8.82, 10.0, 9.2, 11.12, 10.82, 7.93, 4.11, 0.0, -1.34, -4.01, 0.0, 13.58, 13.02, 10.27, 9.27, 8.46, 8.28, 6.81, 4.96, 3.14, 0.0, -5.0, -4.81, 0.0, 3.68, 5.11, 3.96, 3.77, 10.38, 11.09, 10.56, 10.73, 11.18, 11.18, -4.38, -4.38, -4.81, -4.66, -5.33, -7.36, -7.93, -8.18, -7.36, -6.85, -7.06, -6.6, -6.29, -6.8, -6.35, -5.49, -3.79, -3.59, -1.88, -1.69, -1.65, 0.0, 0.0, 0.0, 0.0, 0.0, -1.6, -1.46, -1.34, -1.37, -1.41, -3.04, -3.49, 0.0, 7.67, 8.0, 8.4, 8.93, 7.27, 7.27, 7.59, 8.48, 8.18, 7.07, 8.4, 9.11, 9.11, 7.81, 7.44, 6.32, 4.96, 5.21, 5.21, 4.2, 5.63, 5.63, 5.06, 6.42, 8.59, 8.93, 8.59, 7.27, 6.95, 6.95, 7.87, 8.6, 10.14, 11.62, 9.17, 6.43, 1.38, -4.3, -6.31, -3.69, 12.33, 13.95, 12.63, 10.25, 9.12, 8.06, 8.06, 7.67, 6.24, 5.15, 4.43, 1.91, -9.67, 0.0, 0.0, 1.9, 2.37, 4.4, 10.38, 11.53, 11.35, 10.68, 11.18, 11.18, -4.38, -4.38, -4.52, -4.81, -4.97, -6.64, -7.93, -7.93, -8.18, -7.59, -7.06, -6.8, -6.8, -6.29, -5.64, -4.81, -4.95, -3.49, -1.83, -1.65, -1.6, 0.0, 0.0, 0.0, 0.0, 0.0, -3.24, -4.75, -4.35, -3.12, -1.58, 0.0, 0.0, 6.54, 8.24, 7.07, 6.98, 7.27, 5.95, 7.27, 6.95, 6.64, 6.01, 6.32, 7.44, 8.91, 8.91, 7.81, 5.21, 5.21, 4.2, 4.4, 5.46, 6.95, 6.95, 6.95, 6.95, 7.27, 7.59, 6.98, 6.98, 6.7, 6.42, 6.95, 8.4, 9.29, 10.18, 10.79, 7.59, 3.07, 0.0, 0.0, 0.0, 3.2, 9.49, 10.61, 9.92, 8.37, 8.04, 6.35, 5.91, 6.05, 4.38, 3.56, 3.73, 3.56, 2.54, 0.0, 0.0, 0.0, 1.9, 6.44, 10.79, 11.53, 11.55, 11.11, 11.12, 11.12, -4.38, -4.38, -4.38, -4.52, -5.46, -6.2, -7.36, -7.93, -9.06, -7.59, -7.06, -6.8, -7.0, -6.02, -6.8, -6.69, -5.18, -3.79, -1.73, -1.51, -1.56, -1.6, 0.0, 0.0, 0.0, 0.0, -1.96, -2.79, -2.87, 0.0, 0.0, 3.51, 6.64, 8.97, 10.39, 8.85, 6.95, 6.01, 5.06, 2.71, 2.02, 2.49, 0.0, 2.39, 6.95, 8.18, 8.18, 6.64, 5.21, 5.21, 4.4, 4.4, 6.95, 7.87, 7.87, 7.27, 6.95, 7.59, 8.73, 6.98, 6.7, 6.7, 5.29, 6.32, 9.21, 10.28, 10.28, 9.6, 6.3, 3.32, 2.72, 4.55, 6.42, 5.35, 2.27, 0.0, 0.0, 0.0, 0.97, 1.97, 1.77, 0.89, 0.92, 0.89, 1.29, 1.61, 2.45, 2.28, 0.0, 0.0, 6.2, 8.05, 10.35, 11.51, 12.07, 11.55, 11.62, 11.62, -4.38, -4.38, -4.38, -5.15, -5.46, -6.2, -7.36, -8.78, -9.06, -8.46, -7.06, -6.8, -7.0, -7.0, -6.47, -5.64, -4.66, -3.58, -2.21, -2.15, -2.4, -2.0, -2.28, -2.87, 0.0, 0.0, 0.0, 2.0, 3.69, 5.37, 6.47, 6.47, 8.97, 10.0, 10.43, 9.12, 8.44, 6.76, 3.61, 1.84, 1.75, 1.84, 1.84, 2.97, 4.0, 4.8, 5.46, 5.46, 5.21, 5.21, 4.2, 4.2, 6.64, 7.87, 7.15, 6.64, 7.59, 6.95, 7.27, 6.7, 5.29, 6.17, 6.95, 8.8, 9.26, 9.83, 10.28, 9.6, 7.27, 5.2, 4.51, 5.09, 6.0, 3.01, -1.87, -7.99, -10.4, -9.35, -4.67, -1.78, -0.89, 0.0, 0.0, 0.0, 0.0, 0.0, 1.76, 6.44, 5.2, 6.45, 7.19, 9.48, 10.41, 11.4, 12.07, 12.07, 11.62, 11.62, -4.38, -4.38, -4.38, -5.15, -5.15, -5.81, -6.64, -8.78, -9.06, -9.33, -7.92, -6.8, -7.0, -7.0, -6.02, -5.35, -4.24, -4.66, -2.81, -1.89, -2.4, 0.0, 0.0, 0.0, 0.0, 0.0, 2.88, 4.47, 5.96, 6.64, 6.64, 7.8, 7.8, 9.67, 9.42, 9.92, 7.82, 6.87, 5.2, 3.25, 2.7, 2.83, 2.83, 3.65, 3.49, 3.98, 4.4, 5.46, 5.21, 5.21, 4.0, 6.64, 8.4, 8.8, 8.23, 6.95, 7.27, 7.27, 7.59, 5.9, 4.4, 6.95, 8.8, 9.54, 9.26, 10.08, 11.71, 11.03, 9.09, 7.65, 6.96, 7.45, 9.19, 5.2, -2.33, -10.97, -14.13, -13.26, -10.4, -7.0, -3.79, -0.92, 0.0, 0.0, 0.0, 0.0, 1.98, 5.0, 5.2, 5.75, 8.53, 9.17, 9.62, 9.97, 12.07, 12.07, 11.62, 11.62, -4.38, -4.38, -5.15, -5.15, -5.15, -5.46, -6.2, -8.2, -9.06, -9.33, -8.72, -8.16, -6.8, -7.0, -6.02, -6.02, -5.19, -4.24, -4.24, -3.24, -1.54, 0.0, 0.0, 0.0, 0.0, 0.0, 1.58, 2.96, 4.35, 4.47, 5.01, 6.47, 7.08, 8.47, 8.25, 9.0, 8.29, 7.34, 5.08, 4.54, 3.82, 3.65, 3.49, 3.49, 3.32, 2.31, 3.82, 2.39, 2.97, 4.96, 4.96, 6.64, 6.32, 6.64, 6.95, 8.23, 8.38, 8.24, 7.59, 5.46, 6.32, 10.28, 9.83, 9.21, 9.7, 11.84, 12.35, 11.4, 10.88, 11.5, 11.99, 12.45, 15.36, 11.4, -12.07, -13.99, -16.67, -16.02, -14.64, -11.06, -7.54, -3.69, -1.04, 0.0, 0.0, 0.0, 0.0, 0.0, 4.1, 4.58, 7.26, 8.53, 8.15, 8.53, 11.28, 11.62, 11.62, 11.62, -4.38, -4.38, -5.15, -5.15, -5.15, -5.46, -6.4, -8.2, -9.06, -9.33, -8.72, -8.16, -7.0, -6.56, -6.56, -6.02, -5.19, -5.48, -4.37, -3.24, -3.04, -1.46, -1.38, 0.0, 0.0, 0.0, 1.62, 1.58, 3.04, 3.16, 3.24, 5.23, 5.23, 6.72, 6.72, 7.4, 7.2, 6.6, 5.27, 4.72, 3.98, 3.82, 3.65, 3.32, 2.31, 2.31, 1.62, 2.28, 2.83, 4.71, 4.96, 6.32, 6.32, 6.32, 6.64, 7.87, 9.45, 9.09, 7.9, 8.94, -0.0, 9.75, 10.28, 9.7, 9.7, 12.35, 12.79, 10.96, 11.02, 11.09, 12.39, 12.56, 8.67, 7.03, 11.18, -7.56, -14.3, -15.58, -14.95, -14.51, -11.17, -8.18, -5.62, -3.37, -2.28, -2.31, -3.2, 0.0, 8.58, 9.48, 8.01, 7.85, 7.85, 7.73, 10.4, 11.62, 11.62, 11.62, -4.38, -4.38, -5.15, -5.15, -5.15, -6.2, -6.57, -7.68, -9.06, -9.33, -8.72, -8.4, -7.0, -6.56, -6.56, -5.62, -4.95, -5.04, -4.12, -4.62, -2.96, -3.04, -1.46, -1.34, 0.0, 0.0, 0.0, 1.58, 1.58, 1.69, 1.6, 3.49, 5.09, 5.09, 5.65, 5.65, 5.65, 5.34, 4.71, 3.68, 2.95, 2.83, 2.95, 2.95, 2.57, 2.31, 1.62, 1.84, 4.0, 4.0, 4.0, 3.8, 3.8, 4.0, 6.32, 8.4, 7.6, 7.21, 8.73, 8.93, 7.6, 7.44, 9.39, 9.26, 9.64, 13.67, 12.3, 12.04, 10.52, 9.83, 9.75, 0.0, 2.25, 5.64, 7.14, 5.96, -4.81, -13.15, -13.19, -13.58, -13.54, -10.54, -8.45, -7.74, -6.4, -5.99, -6.2, 7.69, 12.87, 12.42, 9.84, 9.08, 8.53, 8.53, 9.67, 11.28, 11.62, 11.62, -5.15, -5.15, -5.15, -5.15, -5.15, -5.15, -6.57, -7.68, -8.46, -9.33, -8.72, -8.16, -7.88, -7.0, -6.56, -5.62, -6.02, -4.81, -4.0, -4.23, -2.88, -3.04, -1.54, -1.5, 0.0, 0.0, 0.0, 0.0, 0.0, 0.0, 1.69, 1.83, 3.79, 3.79, 3.9, 4.42, 6.34, 6.16, 5.02, 3.82, 2.95, 2.83, 1.93, 2.02, 1.93, 1.84, 0.85, 1.67, 2.57, 3.49, 3.32, 3.82, 3.8, 4.0, 4.96, 7.44, 7.44, 5.37, 7.15, 8.43, 8.18, 8.49, 8.94, 9.39, 10.96, 13.59, 12.35, 11.87, 10.38, 2.49, 0.0, 0.0, 2.85, 8.06, 9.25, 8.87, 7.57, -1.69, -12.0, -10.8, -12.65, -12.65, -11.54, -9.89, -8.05, -8.54, 0.0, 12.71, 13.23, 13.96, 13.84, 11.16, 9.26, 8.32, 8.22, 9.3, 10.96, 10.96, -5.15, -5.15, -5.15, -5.15, -5.15, -5.15, -5.86, -7.21, -8.46, -9.06, -8.72, -8.72, -8.4, -7.0, -6.56, -5.62, -5.62, -4.95, -3.79, -4.12, -4.12, -2.88, -3.04, -1.54, 0.0, 0.0, 0.0, 0.0, 0.0, 0.0, 0.0, 1.88, 2.05, 2.05, 3.9, 4.42, 6.34, 6.34, 5.49, 2.91, 2.19, 2.02, 1.93, 0.98, 1.02, 1.02, 1.93, 2.57, 3.32, 3.21, 3.88, 3.49, 3.65, 4.4, 6.32, 6.32, 6.01, 6.7, 8.67, 8.67, 8.43, 8.23, 8.0, 9.11, 10.08, 12.27, 11.84, 11.2, 6.7, 3.25, 1.33, 0.0, 2.89, 7.26, 12.71, 12.18, 11.14, 7.11, -5.09, -11.87, -12.45, -13.25, -12.26, -10.51, -8.67, -8.66, 7.44, 12.45, 12.89, 13.27, 14.11, 11.8, 9.48, 8.72, 7.48, 8.49, 10.0, 10.0, -5.15, -5.15, -5.15, -5.15, -5.15, -4.87, -5.86, -6.2, -6.85, -8.46, -8.72, -8.72, -8.4, -6.8, -6.56, -5.62, -5.62, -4.6, -4.95, -3.79, -3.79, -2.57, -2.65, -1.37, -1.5, 0.0, 0.0, 0.0, 0.0, 0.0, 0.0, 1.88, 1.69, 3.33, 4.75, 6.72, 8.77, 7.4, 5.23, 3.39, 1.53, 2.62, 2.1, 0.98, 2.02, 2.95, 2.95, 3.21, 3.7, 3.7, 3.21, 3.65, 3.11, 4.4, 5.46, 5.31, 6.01, 6.7, 7.6, 8.49, 8.4, 6.64, 7.59, 8.77, 10.52, 10.08, 10.4, 6.7, 5.7, 4.05, 2.71, 2.28, 2.11, 5.51, 10.08, 14.13, 9.23, 6.68, 3.62, -11.18, -12.37, -13.7, -12.27, -10.37, -10.25, -9.48, 0.0, 13.28, 13.15, 12.98, 12.66, 11.87, 9.92, 8.78, 8.21, 8.22, 8.49, 8.49, -5.15, -5.15, -5.15, -5.15, -5.15, -4.87, -5.86, -5.86, -6.78, -7.36, -8.46, -8.72, -7.28, -6.8, -6.37, -5.46, -5.62, -4.6, -4.6, -3.79, -3.79, -2.57, -2.57, -1.3, -1.34, 0.0, 0.0, 0.0, -1.18, 0.0, 0.0, 1.65, 3.33, 4.47, 5.81, 7.4, 7.4, 6.9, 5.37, 5.09, 4.66, 5.27, 5.75, 5.06, 5.9, 5.28, 4.92, 4.71, 3.88, 3.88, 3.21, 3.65, 4.99, 4.99, 6.44, 5.46, 5.36, 6.01, 7.89, 8.3, 6.32, 5.59, 8.43, 8.91, 8.91, 10.0, 6.71, 2.02, 3.11, 4.05, 2.42, 1.2, 0.0, 0.0, 2.45, 2.14, 2.12, 2.3, 3.49, -2.13, -10.73, -13.92, -13.43, -11.16, -10.18, -10.19, 0.0, 10.12, 11.17, 12.42, 12.39, 11.1, 10.19, 8.72, 8.31, 8.67, 8.85, 8.85, -5.15, -5.15, -5.15, -5.15, -5.15, -4.87, -5.55, -6.05, -6.4, -6.4, -7.59, -7.82, -7.49, -7.0, -7.0, -5.46, -5.46, -4.47, -4.47, -3.42, -3.79, -2.57, -2.57, -1.3, -1.3, -1.3, -1.2, -1.23, -1.18, -1.27, 0.0, 1.65, 3.24, 4.75, 5.65, 7.4, 7.4, 6.31, 6.31, 7.4, 8.05, 7.69, 7.72, 6.4, 6.11, 5.64, 5.14, 5.57, 5.98, 3.88, 4.4, 5.06, 5.06, 5.29, 5.95, 6.44, 6.44, 7.27, 8.05, 7.51, 5.59, 6.32, 8.91, 9.26, 9.2, 8.53, 6.45, 4.6, 0.0, 0.0, 1.39, 2.24, 0.0, -4.1, -6.85, -6.63, -4.78, -0.89, 1.58, 2.59, -1.73, -11.77, -13.77, -12.03, -11.33, -10.12, -2.54, 2.28, 7.93, 11.64, 12.13, 11.1, 9.34, 8.65, 8.85, 8.15, 8.54, 8.54, -5.15, -5.15, -5.15, -5.15, -5.15, -4.87, -5.55, -6.05, -6.4, -5.99, -6.85, -7.82, -7.28, -7.0, -7.2, -5.62, -5.46, -4.47, -4.47, -3.42, -3.52, -2.57, -2.38, -1.2, -1.2, -1.2, -1.17, -2.21, -2.28, -1.15, 0.0, 1.46, 3.16, 4.62, 6.14, 7.4, 6.84, 6.84, 8.74, 8.74, 9.23, 8.2, 7.18, 5.64, 4.61, 5.21, 6.4, 6.9, 6.9, 6.72, 6.0, 4.73, 5.28, 5.28, 5.29, 5.52, 5.21, 6.24, 7.59, 6.95, 5.59, 8.0, 8.41, 9.11, 6.64, 8.38, 9.09, 8.53, 4.2, 0.0, 2.19, 4.9, 4.66, 1.18, -7.0, -11.05, -8.84, -5.09, -1.7, 1.56, 1.63, -1.47, -6.9, -8.31, -9.27, -6.4, -3.01, 1.15, 6.64, 10.12, 10.63, 10.12, 8.68, 8.68, 8.43, 7.92, 9.13, 9.13, -4.98, -4.98, -5.15, -5.15, -5.15, -4.87, -4.87, -5.73, -6.05, -6.99, -6.6, -7.36, -7.28, -6.8, -7.0, -5.62, -5.62, -4.6, -4.6, -3.52, -3.52, -2.38, -2.38, -2.38, -2.38, -2.38, -2.15, -2.09, -2.15, -1.2, 0.0, 1.42, 3.07, 4.5, 5.98, 7.2, 8.51, 7.92, 8.88, 9.74, 9.49, 7.82, 6.67, 5.95, 4.96, 4.6, 5.8, 6.85, 7.68, 6.76, 5.86, 4.2, 4.2, 4.5, 4.71, 4.6, 5.21, 6.5, 6.87, 7.59, 6.64, 8.4, 8.48, 6.32, 6.32, 8.4, 8.8, 8.8, 7.27, 5.7, 5.46, 6.87, 6.31, 7.26, 3.95, -5.47, -11.32, -8.83, -5.73, -3.51, 0.0, 0.0, 0.0, -1.21, -2.21, -1.6, 0.0, 2.64, 5.86, 7.44, 8.91, 8.83, 8.31, 8.46, 8.16, 8.72, 8.78, 8.78, -4.98, -4.98, -4.98, -5.15, -5.15, -5.15, -4.87, -5.02, -5.73, -6.6, -6.18, -7.06, -7.59, -7.0, -7.0, -5.62, -5.62, -4.73, -4.73, -3.62, -3.62, -2.45, -2.38, -2.38, -2.21, -2.21, -3.18, -3.22, -1.78, 0.0, 0.0, 1.46, 1.6, 4.5, 5.81, 7.2, 8.28, 7.92, 7.92, 8.51, 8.51, 7.0, 6.2, 5.0, 3.82, 4.15, 5.36, 5.67, 6.2, 5.6, 4.6, 3.44, 3.44, 2.83, 2.97, 4.07, 4.99, 6.24, 6.87, 7.15, 8.38, 8.05, 6.79, 6.01, 6.32, 8.06, 8.05, 7.81, 6.42, 6.7, 6.14, 4.6, 4.93, 5.5, 6.76, 3.46, -5.94, -10.94, -9.17, -6.47, -3.09, 0.0, 1.39, 1.78, 1.27, 1.32, 1.3, 3.04, 4.27, 6.53, 8.44, 9.96, 8.59, 9.42, 8.46, 8.46, 8.78, 8.78, -4.98, -4.98, -4.98, -5.15, -5.15, -5.15, -4.87, -5.02, -5.02, -6.24, -5.81, -6.6, -7.06, -7.92, -7.0, -5.62, -5.62, -5.62, -4.6, -4.73, -3.62, -3.62, -2.45, -2.21, -2.15, -3.18, -3.18, -3.0, -2.11, 0.0, 0.0, 0.0, 1.46, 4.62, 7.2, 7.2, 7.2, 6.84, 7.4, 7.4, 7.4, 5.98, 5.31, 4.48, 3.98, 4.32, 4.43, 5.73, 5.73, 4.47, 3.61, 2.83, 2.83, 2.17, 2.28, 3.36, 3.99, 5.98, 6.24, 7.27, 8.15, 7.28, 7.81, 6.7, 8.06, 7.63, 7.2, 7.07, 4.4, 5.52, 5.98, 2.95, 0.0, 1.02, 1.82, 5.16, 3.87, -7.44, -12.71, -8.46, -4.43, -0.79, 0.73, 1.57, 2.02, 2.05, 1.97, 2.52, 3.47, 5.8, 9.77, 10.35, 9.17, 9.02, 7.93, 8.18, 8.78, 8.78, -4.98, -4.98, -4.98, -4.98, -5.15, -5.15, -5.15, -5.02, -5.02, -5.18, -5.48, -6.37, -6.6, -7.06, -6.8, -7.0, -5.62, -5.62, -4.6, -4.73, -3.62, -3.72, -2.45, -2.28, -2.98, -2.98, -2.98, -3.09, -1.13, 0.0, 0.0, 0.0, 2.57, 5.35, 7.2, 6.66, 6.66, 5.5, 5.65, 6.14, 6.14, 6.14, 5.64, 4.81, 4.32, 4.32, 4.65, 5.15, 4.74, 4.12, 3.11, 2.28, 1.43, 1.54, 1.62, 2.83, 4.18, 5.45, 6.69, 6.98, 9.3, 8.8, 8.0, 8.4, 7.6, 7.6, 6.44, 5.69, 5.63, 5.29, 5.9, 5.2, 0.0, 0.0, 0.0, 2.94, 6.54, 5.03, -1.34, -7.0, -6.45, -3.22, -0.83, 0.0, 1.69, 2.08, 2.05, 2.0, 4.08, 7.82, 11.21, 10.73, 8.01, 6.87, 6.73, 7.59, 8.2, 8.2, -4.71, -4.71, -4.98, -4.98, -5.15, -5.15, -5.15, -5.02, -5.18, -5.18, -5.34, -5.64, -6.37, -7.06, -7.06, -7.28, -6.8, -5.46, -4.47, -4.6, -3.62, -3.62, -3.62, -3.37, -3.07, -2.8, -2.98, -1.95, 0.0, 0.0, 0.0, 0.0, 3.69, 5.19, 6.47, 6.47, 5.5, 5.5, 5.65, 5.65, 6.14, 5.98, 5.64, 4.98, 4.48, 4.32, 4.65, 4.98, 3.85, 3.41, 1.76, 1.56, 1.5, 1.62, 1.76, 2.83, 3.82, 5.29, 6.31, 8.82, 9.46, 9.3, 8.4, 8.4, 8.4, 7.15, 5.69, 6.01, 5.59, 5.46, 6.04, 6.76, 4.55, 1.77, 0.0, 1.87, 5.65, 7.45, 5.18, 0.0, -5.79, -7.2, -4.26, -1.03, 0.0, 0.73, 2.28, 4.11, 8.38, 10.12, 10.73, 9.42, 7.82, 5.6, 6.0, 6.73, 7.36, 7.36, -4.71, -4.71, -4.98, -4.98, -5.15, -5.15, -5.31, -5.31, -5.18, -4.91, -5.34, -5.34, -5.64, -5.81, -6.18, -7.28, -6.8, -5.85, -5.46, -4.6, -4.3, -3.62, -3.62, -3.37, -3.07, -2.8, -1.89, -0.98, 0.0, 0.0, 0.0, 1.17, 3.32, 5.67, 6.1, 5.19, 4.95, 4.95, 5.09, 5.5, 5.5, 5.98, 7.0, 4.98, 4.48, 4.32, 3.47, 3.73, 2.63, 2.32, 1.91, 0.79, 0.82, 1.62, 2.59, 3.36, 4.25, 4.92, 5.9, 8.22, 9.16, 8.49, 7.87, 7.47, 7.07, 6.64, 4.46, 4.71, 6.32, 6.32, 7.59, 7.27, 7.44, 5.38, 3.2, 2.07, 3.42, 6.22, 6.12, 3.87, 0.0, -3.79, -8.57, -5.02, 0.0, 1.72, 5.15, 9.48, 10.12, 10.12, 9.17, 8.85, 7.82, 5.11, 5.27, 4.98, 6.2, 6.2, -4.55, -4.55, -4.98, -4.98, -5.15, -5.15, -5.31, -5.31, -5.18, -5.18, -5.06, -5.34, -5.34, -5.64, -4.96, -5.3, -7.28, -6.8, -5.85, -5.62, -4.3, -3.28, -3.37, -3.37, -2.07, -1.89, -0.95, 0.0, 0.0, 0.0, 0.0, 2.15, 4.34, 4.66, 4.66, 3.58, 3.58, 3.69, 4.95, 5.5, 5.5, 5.5, 5.64, 4.55, 3.82, 3.08, 3.34, 2.45, 2.54, 1.17, 1.0, 0.93, 1.69, 2.59, 3.36, 4.07, 4.25, 4.92, 6.59, 7.36, 8.53, 9.82, 7.87, 7.07, 7.07, 6.64, 5.69, 7.07, 8.0, 7.44, 8.4, 8.99, 8.15, 8.68, 7.27, 4.16, 1.13, 1.09, 0.0, 1.62, 3.83, 2.79, -2.5, -11.53, -4.38, 2.72, 7.13, 8.38, 8.38, 8.38, 8.1, 7.82, 6.44, 5.11, 3.14, 2.54, 1.08, 4.58, -4.55, -4.55, -4.71, -4.98, -5.15, -5.15, -5.31, -5.31, -5.18, -5.18, -5.06, -5.06, -5.34, -5.34, -4.81, -4.96, -5.3, -7.28, -6.8, -6.02, -5.62, -4.6, -4.3, -3.37, -3.07, -1.89, -0.92, 0.0, 0.0, 0.0, 1.01, 2.09, 4.34, 4.34, 4.34, 3.32, 3.47, 3.69, 4.81, 4.95, 5.35, 5.5, 5.48, 4.24, 3.36, 2.82, 2.28, 2.45, 2.63, 2.32, 2.06, 2.82, 3.39, 3.78, 4.07, 4.71, 4.92, 4.92, 6.41, 6.86, 9.08, 9.66, 8.58, 7.07, 5.69, 7.15, 7.6, 6.9, 7.6, 7.81, 8.67, 9.75, 9.27, 8.31, 10.12, 9.32, 4.27, 0.0, -2.85, -1.95, 0.0, 2.95, 1.45, -13.39, -13.86, 0.0, 6.2, 6.9, 6.0, 5.8, 4.1, 4.1, 3.96, 1.77, 0.0, 0.0, 0.0, 1.08, -4.55, -4.55, -4.55, -4.98, -5.15, -5.15, -5.31, -5.31, -5.48, -5.18, -5.34, -5.06, -5.34, -5.34, -4.53, -4.66, -4.66, -5.3, -5.85, -5.85, -6.02, -5.62, -5.62, -4.3, -3.07, -2.98, -0.98, 0.0, 0.0, 0.0, 0.98, 3.09, 4.34, 4.34, 3.0, 3.32, 3.22, 3.47, 3.69, 4.81, 5.35, 4.12, 3.88, 3.47, 3.77, 4.12, 3.65, 2.81, 2.81, 2.48, 3.41, 4.12, 4.13, 3.95, 4.4, 4.71, 4.92, 5.52, 5.75, 6.86, 7.95, 9.08, 7.64, 7.81, 7.44, 8.4, 7.6, 7.28, 7.81, 8.22, 8.6, 8.63, 9.08, 8.73, 10.87, 13.22, 12.09, 7.88, 3.69, 0.0, -3.07, -2.05, -1.62, -14.88, -13.59, -9.8, 0.0, 2.63, 2.13, 2.06, 2.06, 0.0, 0.0, 0.0, -1.38, -2.37, -2.71, 0.0, -4.55, -4.55, -4.55, -4.71, -4.98, -5.15, -5.86, -6.05, -6.05, -6.24, -5.18, -4.91, -5.06, -5.34, -5.18, -4.4, -3.8, -3.8, -4.34, -4.47, -5.85, -5.85, -5.85, -5.62, -4.3, -4.3, -1.95, -1.89, -0.95, 0.0, 0.95, 3.09, 3.32, 3.09, 3.0, 3.0, 3.22, 3.36, 3.47, 3.58, 3.58, 3.69, 3.76, 3.29, 2.08, 2.81, 4.0, 4.12, 3.88, 3.76, 3.65, 4.28, 3.67, 3.78, 4.07, 4.07, 4.25, 4.8, 5.52, 6.2, 7.95, 9.08, 10.01, 8.8, 7.81, 6.64, 7.28, 8.4, 8.17, 8.91, 8.63, 8.4, 8.58, 8.22, 9.48, 12.93, 14.06, 14.58, 12.19, 8.86, 7.0, 4.59, 3.52, -11.27, -16.05, -12.96, -4.1, 0.0, 0.0, 0.0, 0.0, -2.06, -3.96, -2.72, -3.29, -3.18, -4.48, -4.48, -4.39, -4.39, -4.55, -4.55, -4.98, -4.98, -5.86, -6.05, -6.05, -6.05, -5.18, -5.18, -4.91, -5.18, -5.18, -4.4, -3.58, -3.58, -2.89, -2.89, -3.18, -4.47, -4.47, -4.47, -4.47, -4.47, -3.09, -3.0, -1.89, 0.0, 0.99, 2.11, 2.18, 2.02, 2.02, 2.9, 3.12, 3.02, 3.36, 3.47, 3.47, 3.47, 3.36, 2.24, 1.98, 2.2, 2.43, 2.5, 2.56, 2.48, 3.53, 3.18, 2.59, 3.21, 3.36, 3.36, 4.8, 4.8, 5.0, 5.43, 6.45, 7.95, 8.82, 8.23, 8.18, 6.64, 7.81, 8.4, 8.06, 8.72, 8.4, 7.67, 7.59, 6.3, 8.01, 8.58, 11.86, 13.98, 15.66, 15.41, 14.07, 11.65, 10.31, 5.5, -9.67, -13.01, -11.87, -3.14, -2.54, -2.54, -4.65, -4.65, -5.6, -5.6, -4.12, -4.9, -4.9, -4.9, -4.39, -4.39, -4.55, -4.55, -4.71, -4.98, -5.86, -5.86, -6.2, -6.05, -6.05, -5.18, -4.91, -4.91, -4.4, -4.4, -3.8, -2.72, -2.72, -1.83, -1.89, -1.89, -2.01, -3.18, -3.18, -3.18, -3.09, -3.0, -1.96, 0.0, 1.03, 2.04, 2.04, 1.96, 2.02, 2.81, 2.81, 3.02, 3.02, 3.25, 2.28, 2.28, 2.2, 1.98, 0.97, 1.08, 1.19, 2.35, 2.4, 2.24, 2.16, 2.0, 2.47, 2.47, 3.36, 3.36, 3.98, 4.8, 5.43, 5.43, 5.64, 7.24, 8.53, 9.66, 7.27, 6.95, 7.81, 8.8, 8.48, 8.0, 7.67, 7.15, 7.33, 6.58, 6.5, 6.94, 7.32, 10.53, 12.32, 15.68, 17.08, 16.29, 14.35, 11.3, 6.0, -13.59, -12.52, -9.17, -4.81, -4.81, -4.65, -5.6, -5.99, -5.6, -4.9, -4.75, -4.75, -4.75, -4.39, -4.39, -4.55, -4.55, -4.71, -4.71, -4.87, -5.15, -6.05, -6.4, -5.31, -5.18, -5.18, -4.4, -4.4, -3.58, -2.72, -2.72, -1.83, -1.83, -1.89, -1.89, -1.89, -1.89, -2.01, -2.01, -1.95, -1.89, -0.99, 0.0, 1.03, 2.04, 1.03, 0.96, 1.9, 1.9, 2.72, 3.02, 3.02, 2.04, 2.04, 2.2, 2.13, 0.97, 0.86, 0.93, 1.11, 2.2, 2.2, 2.16, 1.84, 1.69, 1.6, 2.47, 2.59, 3.82, 3.82, 3.98, 4.54, 5.43, 5.43, 6.16, 7.85, 8.22, 8.53, 6.95, 6.32, 7.15, 8.05, 7.81, 7.81, 7.67, 7.81, 7.9, 7.59, 6.16, 6.42, 6.6, 9.63, 11.8, 14.91, 16.5, 14.37, 11.49, 10.11, 7.75, 0.0, -11.6, -10.37, -6.44, -6.67, -7.73, -7.28, -5.4, -6.21, -6.45, -6.45, -6.45, -4.39, -4.39, -4.55, -4.55, -4.55, -4.71, -4.71, -5.15, -5.31, -5.31, -5.31, -5.31, -4.4, -4.4, -3.58, -2.72, -2.72, -2.89, -2.72, -2.72, -1.83, -1.89, -1.89, -1.89, -1.89, -1.89, -1.83, -1.89, 0.0, 1.06, 2.04, 1.97, 0.99, 0.92, 0.92, 1.83, 1.83, 1.97, 2.04, 1.97, 1.97, 1.97, 0.99, 0.89, 0.86, 0.93, 1.08, 2.13, 2.13, 1.98, 1.84, 1.62, 2.35, 2.47, 2.59, 2.83, 2.95, 3.98, 4.54, 4.54, 5.43, 5.43, 6.4, 7.02, 8.59, 7.27, 6.32, 6.01, 6.64, 7.51, 8.05, 8.8, 8.4, 6.95, 6.87, 5.54, 4.65, 5.81, 6.94, 10.89, 13.45, 14.47, 13.3, 11.4, 11.62, 11.0, 6.97, -11.16, -12.96, -10.37, -7.51, -8.85, -8.53, -8.53, -8.22, 0.0, 0.0, 0.0, -4.39, -4.39, -4.55, -4.55, -4.71, -4.71, -4.71, -4.87, -5.15, -5.31, -5.31, -5.31, -4.66, -4.4, -3.58, -3.58, -2.72, -2.89, -2.89, -2.72, -2.72, -2.8, -2.8, -1.89, -1.89, -1.89, -1.83, -1.77, 0.0, 1.06, 2.04, 0.99, 0.99, 0.89, 0.89, 0.89, 1.77, 1.77, 1.97, 1.97, 1.97, 0.99, 0.99, 0.93, 0.86, 0.93, 2.06, 2.06, 2.06, 1.91, 1.76, 1.62, 2.35, 2.47, 2.59, 2.83, 2.95, 3.08, 4.54, 4.54, 4.36, 4.54, 6.16, 7.02, 8.22, 7.27, 4.96, 4.96, 8.18, 9.55, 9.33, 8.8, 7.68, 6.14, 5.95, 5.54, 6.4, 6.21, 7.89, 9.32, 11.17, 12.48, 12.45, 13.8, 13.58, 11.36, 8.99, -13.41, -11.6, -10.04, -11.2, -12.52, -8.53, -5.2, -0.0, 0.0, 0.0, 0.0, -4.39, -4.39, -4.55, -4.55, -4.55, -4.71, -4.87, -4.87, -5.15, -5.15, -5.31, -5.31, -4.52, -4.66, -4.66, -3.8, -3.8, -3.8, -3.8, -3.69, -2.81, -2.72, -2.8, -2.8, -2.8, -2.8, -2.72, -1.77, 0.0, 1.06, 1.03, 1.03, 0.99, 0.0, 0.89, 0.86, 0.86, 1.77, 1.77, 0.89, 0.89, 0.89, 0.96, 0.93, 0.86, 1.0, 1.04, 1.04, 1.0, 1.84, 1.76, 2.49, 2.28, 2.35, 2.47, 2.59, 2.95, 2.95, 3.98, 4.36, 4.36, 4.36, 5.2, 7.02, 7.44, 7.59, 5.21, 6.64, 8.18, 6.95, 5.7, 7.87, 5.29, 6.42, 7.27, 6.87, 6.76, 6.7, 8.1, 8.97, 9.73, 11.41, 12.89, 15.59, 14.7, 11.82, 8.95, 0.0, -12.52, 0.0, 0.0, -0.0, -3.68, -5.0, -8.53, -12.52, -12.52, -12.52, -4.39, -4.39, -4.55, -4.55, -4.55, -4.46, -4.87, -4.87, -5.15, -5.63, -5.63, -5.63, -5.48, -4.66, -4.66, -4.66, -4.66, -3.8, -3.8, -3.8, -3.8, -2.72, -2.8, -2.8, -2.8, -2.72, -2.72, -1.89, 0.0, 1.03, 1.03, 0.0, 0.0, 0.0, 0.0, 0.86, 0.86, 0.86, 0.86, 0.89, 0.0, 0.0, 0.0, 0.93, 0.89, 0.96, 0.99, 0.96, 0.89, 1.76, 1.69, 1.62, 1.62, 1.54, 1.68, 2.59, 2.83, 2.95, 2.95, 3.39, 3.39, 4.36, 5.0, 5.4, 6.45, 6.44, 5.9, 6.64, 5.9, 4.2, 2.39, 5.46, 6.17, 8.38, 8.93, 8.24, 7.9, 7.56, 8.85, 9.17, 8.78, 9.61, 13.17, 13.95, 13.56, 10.55, 5.15, 3.14, 13.01, 12.04, 8.53, 8.53, 0.0, 0.0, 0.0, 0.0, 0.0, 0.0, -4.39, -4.39, -4.55, -4.55, -4.55, -4.46, -4.61, -4.87, -5.15, -5.31, -5.63, -5.63, -5.81, -5.48, -4.66, -4.66, -4.66, -4.66, -4.66, -3.8, -3.8, -3.58, -3.69, -2.8, -2.72, -3.58, -2.72, -1.89, 0.0, 1.06, 0.0, 0.0, 0.0, 0.0, 0.0, 0.0, 0.86, 0.86, 0.0, 0.0, 0.0, 0.0, 0.0, 0.93, 0.93, 0.96, 0.99, 0.96, 0.97, 1.76, 1.69, 1.62, 1.62, 1.6, 1.68, 1.68, 1.76, 2.83, 2.83, 2.95, 3.25, 3.25, 3.77, 5.2, 5.99, 5.2, 4.6, 5.46, 6.17, 4.4, 5.9, 6.64, 6.64, 9.55, 8.93, 8.59, 7.9, 8.82, 8.53, 7.96, 7.2, 7.44, 8.7, 8.84, 9.47, 3.29, 5.81, 8.85, 12.33, 12.98, 9.8, 8.59, 9.48, 9.8, 10.73, 10.37, 10.37, 10.37, -4.39, -4.39, -4.39, -4.55, -4.55, -4.55, -4.46, -4.87, -4.87, -5.31, -5.63, -5.81, -5.81, -5.81, -5.81, -4.66, -4.66, -4.66, -4.66, -4.66, -3.8, -3.8, -3.58, -3.58, -3.58, -3.58, -2.72, -0.95, 0.0, 0.0, 0.0, 0.0, 0.0, 0.0, 0.0, 0.0, 0.0, 0.0, 0.0, 0.0, 0.0, 0.0, 0.0, 0.0, 0.0, 0.0, 0.99, 0.96, 1.98, 1.84, 1.69, 1.62, 1.62, 1.47, 1.68, 1.68, 1.68, 1.93, 2.83, 2.83, 2.95, 3.25, 3.39, 3.92, 4.24, 4.58, 4.8, 3.25, 5.29, 6.14, 6.64, 5.86, 6.64, 9.33, 8.23, 8.93, 9.09, 9.46, 7.56, 6.08, 5.8, 5.36, 4.66, 4.55, 2.45, 1.54, 9.39, 7.02, 8.85, 14.3, 12.0, 10.77, 11.64, 12.03, 10.91, 10.3, 10.3, 10.3, -4.65, -4.65, -4.39, -4.55, -4.55, -4.55, -4.71, -4.61, -4.87, -5.31, -5.63, -5.81, -5.81, -5.81, -5.81, -4.96, -4.66, -4.66, -4.66, -4.66, -4.66, -3.8, -3.8, -3.58, -3.58, -3.58, -2.64, -1.02, 0.0, 0.0, 0.0, 0.0, 0.0, 0.0, 0.0, 0.0, 0.0, 0.0, 0.0, 0.0, 0.0, 0.0, 0.0, 0.0, 0.0, 0.89, 1.84, 1.84, 1.84, 1.7, 1.63, 1.69, 1.62, 1.54, 1.47, 1.6, 1.68, 1.68, 1.84, 1.93, 1.93, 2.23, 2.23, 2.42, 2.82, 2.93, 2.37, 2.71, 4.6, 5.06, 5.46, 5.7, 8.03, 10.52, 9.97, 9.6, 9.3, 7.9, 6.5, 5.2, 5.4, 4.28, 3.93, 2.76, 2.49, 1.5, 14.13, 4.55, 6.67, 12.39, 14.18, 12.65, 11.8, 11.44, 10.43, 10.43, 10.43, 10.43, -4.65, -4.65, -4.39, -4.39, -4.55, -4.55, -4.71, -4.46, -4.87, -4.87, -5.31, -5.63, -5.81, -5.81, -5.81, -4.96, -4.96, -4.66, -4.66, -4.81, -4.66, -3.8, -3.8, -3.8, -3.58, -3.47, -1.89, 0.0, 0.0, 0.0, 0.0, 0.0, 0.0, 0.0, 0.0, 0.0, 0.0, 0.0, 0.0, 0.0, 0.0, 0.0, 0.0, 0.0, 0.86, 1.7, 1.77, 1.77, 1.77, 1.7, 1.63, 1.69, 0.82, 0.82, 0.78, 0.74, 1.6, 1.6, 1.84, 1.84, 1.84, 1.93, 2.23, 2.33, 2.42, 2.82, 2.93, 3.07, 4.6, 2.39, 3.11, 4.6, 8.38, 9.96, 10.38, 9.2, 7.9, 7.15, 5.92, 4.8, 4.54, 4.28, 4.65, 4.56, 5.72, 3.38, -0.0, 1.53, 8.38, 11.88, 14.66, 13.19, 12.65, 11.72, 10.69, 10.12, 10.12, 10.12, -4.65, -4.65, -4.39, -4.39, -4.39, -4.55, -4.71, -4.87, -4.61, -4.87, -5.15, -5.63, -5.81, -5.81, -5.81, -4.96, -4.96, -4.96, -4.66, -4.81, -4.81, -3.8, -3.8, -3.8, -3.47, -2.81, -1.02, 0.0, 0.0, 0.0, 0.0, 0.0, 0.0, 0.0, 0.0, -0.86, -0.86, -0.83, -0.83, -0.8, 0.0, 0.0, 0.0, 0.86, 1.7, 1.63, 1.63, 1.63, 1.63, 1.63, 1.63, 0.79, 0.82, 0.82, 0.82, 0.78, 0.74, 0.81, 1.6, 0.93, 0.93, 0.93, 1.93, 1.14, 1.23, 1.28, 2.82, 3.07, 3.98, 1.93, 3.11, 4.6, 6.17, 8.58, 7.59, 7.27, 7.9, 7.15, 5.92, 4.54, 4.72, 4.12, 6.55, 8.2, 8.93, 7.05, -7.0, -0.0, 7.69, 13.39, 14.69, 13.39, 12.65, 10.92, 10.12, 10.12, 10.12, 10.12, -4.65, -4.65, -4.65, -4.39, -4.39, -4.39, -4.55, -4.71, -4.46, -4.71, -5.15, -5.63, -4.81, -4.96, -4.96, -4.96, -4.96, -4.96, -4.96, -4.81, -4.81, -3.92, -3.92, -3.8, -3.69, -1.89, 0.0, 0.0, 0.0, 0.0, 0.0, 0.0, -0.89, -0.89, -0.89, -0.86, -0.86, -0.83, -0.8, 0.0, 0.0, 0.0, 0.86, 1.7, 1.63, 1.63, 1.63, 1.63, 1.56, 0.79, 0.79, 0.79, 0.85, 0.82, 0.82, 0.78, 0.78, 0.81, 0.81, 0.81, 0.85, 0.93, 0.98, 1.02, 1.18, 1.23, 2.71, 2.71, 2.82, 1.93, 3.25, 3.25, 3.98, 6.2, 5.0, 2.49, 0.0, 3.25, 4.23, 3.77, 4.54, 4.24, 4.15, 6.94, 7.49, 9.47, 2.52, -4.81, 5.15, 14.31, 15.15, 13.97, 12.62, 10.75, 9.92, 9.06, 9.06, 9.06, -4.65, -4.65, -4.65, -4.39, -4.55, -4.55, -4.55, -4.55, -4.46, -4.71, -5.15, -5.63, -4.81, -5.81, -5.81, -4.96, -4.96, -4.96, -4.96, -4.96, -4.81, -3.92, -3.92, -4.66, -2.81, -1.02, 0.0, 0.0, 0.0, 0.0, -0.92, -0.89, -0.89, -0.89, -0.86, -0.86, -0.86, -0.83, 0.0, 0.0, 0.0, 0.86, 0.86, 1.7, 1.63, 1.63, 0.82, 0.79, 0.79, 0.79, 0.79, 0.79, 0.79, 0.82, 0.82, 0.82, 0.78, 0.74, 0.81, 0.81, 0.81, 0.93, 0.98, 1.02, 1.02, 1.18, 1.18, 2.6, 2.82, 2.49, 2.02, 1.52, 3.39, 4.15, 3.98, 2.02, 0.0, 0.0, 3.25, 4.23, 4.54, 2.93, 2.02, 2.93, 3.74, 5.86, 5.92, 0.0, 4.66, 15.2, 14.9, 13.59, 11.53, 10.02, 8.85, 8.68, 8.68, 8.68, -5.29, -5.29, -5.29, -5.02, -4.55, -4.55, -4.55, -4.46, -4.46, -4.71, -5.15, -5.46, -5.63, -5.81, -5.81, -5.48, -4.66, -4.66, -4.96, -5.11, -4.81, -4.81, -4.81, -3.8, -2.02, 0.0, 0.0, 0.0, 0.0, -0.92, -0.92, -0.89, -0.89, -0.86, -0.86, -0.86, -0.83, 0.0, 0.0, 0.0, 0.8, 0.86, 0.86, 0.82, 0.82, 0.82, 0.82, 0.79, 0.79, 0.79, 0.79, 0.75, 0.79, 0.75, 0.82, 0.82, 0.78, 0.78, 0.74, 0.77, 0.81, 0.81, 0.85, 0.98, 0.98, 0.98, 1.14, 2.49, 2.82, 2.6, 0.0, 1.52, 2.95, 3.53, 5.52, 5.29, 6.95, 7.51, 5.06, 4.8, 3.53, 1.91, 0.99, 0.0, 0.0, 1.69, 3.31, 4.35, 4.71, 10.39, 13.27, 12.65, 10.47, 8.68, 8.16, 7.43, 7.43, 7.43, -5.29, -5.29, -5.29, -5.02, -5.2, -5.2, -5.2, -4.46, -4.46, -4.71, -5.15, -5.46, -5.63, -5.63, -5.81, -4.52, -4.52, -4.66, -4.66, -4.66, -4.81, -4.81, -4.81, -4.81, -2.02, 0.0, 0.0, -0.99, -0.96, -1.83, -1.83, -1.77, -1.77, -0.86, -0.86, -0.86, 0.0, 0.0, 0.0, 0.8, 0.8, 0.8, 0.0, 0.0, 0.0, 0.0, 0.0, 0.0, 0.0, 0.0, 0.0, 0.0, 0.0, 0.0, 0.0, 0.0, 0.78, 0.78, 0.78, 0.74, 0.77, 0.77, 0.0, 0.81, 0.93, 0.93, 1.09, 1.22, 1.22, 1.22, 0.0, 0.0, 1.33, 2.82, 4.6, 6.42, 8.03, 7.68, 4.4, 3.77, 2.19, 0.89, 0.0, 0.0, 0.0, 0.0, 1.65, 4.32, 6.34, 9.17, 10.05, 11.06, 9.77, 8.64, 7.88, 6.56, 6.56, 6.56, -5.29, -5.29, -5.29, -5.29, -5.02, -5.2, -5.2, -4.55, -4.46, -4.71, -5.15, -5.46, -5.63, -4.81, -4.81, -4.52, -4.52, -4.52, -4.66, -4.66, -4.66, -4.81, -4.81, -3.8, -2.02, -0.99, -0.99, -1.9, -1.9, -1.83, -1.83, -1.77, -0.86, -0.86, -0.86, 0.0, 0.0, 0.0, 0.0, 0.0, 0.0, 0.0, 0.0, 0.0, 0.0, 0.0, 0.0, 0.0, 0.0, 0.0, 0.0, 0.0, 0.0, 0.0, 0.0, 0.0, 0.78, 0.74, 0.78, 0.74, 0.74, 0.0, 0.0, 0.81, 0.81, 0.93, 0.93, 1.04, 1.16, 0.0, 0.0, 0.0, 0.0, 1.84, 4.4, 6.42, 8.03, 6.42, 4.6, 2.6, 2.19, 0.93, 0.89, 0.0, 0.0, 1.82, 3.23, 5.42, 6.6, 7.74, 9.17, 9.49, 9.73, 8.67, 7.78, 6.27, 6.27, 6.27, -5.29, -5.29, -5.48, -5.48, -5.2, -5.2, -5.2, -4.55, -4.31, -4.71, -4.98, -5.46, -4.81, -4.81, -4.81, -4.52, -4.52, -4.52, -4.52, -4.66, -4.66, -4.66, -4.66, -3.8, -2.02, -1.96, -1.96, -1.9, -1.9, -1.83, -1.83, -1.77, -0.86, -0.86, -0.86, 0.0, 0.0, 0.0, 0.0, 0.0, 0.0, 0.0, 0.0, 0.0, 0.0, 0.0, 0.0, 0.0, 0.0, 0.0, 0.0, 0.0, 0.0, 0.0, 0.0, 0.0, 0.0, 0.74, 0.74, 0.74, 0.74, 0.0, 0.0, 0.0, 0.81, 0.89, 0.89, 1.04, 0.0, 0.0, 0.0, 0.0, 0.89, 1.91, 5.29, 7.27, 8.03, 6.42, 4.6, 2.6, 2.19, 1.77, 1.71, 1.68, 1.91, 3.76, 5.29, 6.21, 7.27, 7.95, 8.9, 9.74, 9.12, 8.9, 7.78, 6.62, 6.62, 6.62, -5.29, -5.29, -5.48, -5.48, -5.2, -5.2, -5.2, -4.55, -4.31, -4.71, -4.98, -5.46, -4.81, -4.81, -4.81, -4.52, -4.52, -4.52, -4.52, -4.66, -4.66, -4.66, -4.66, -3.8, -2.02, -1.96, -1.96, -1.9, -1.9, -1.83, -1.83, -1.77, -0.86, -0.86, -0.86, 0.0, 0.0, 0.0, 0.0, 0.0, 0.0, 0.0, 0.0, 0.0, 0.0, 0.0, 0.0, 0.0, 0.0, 0.0, 0.0, 0.0, 0.0, 0.0, 0.0, 0.0, 0.0, 0.74, 0.74, 0.74, 0.74, 0.0, 0.0, 0.0, 0.81, 0.89, 0.89, 1.04, 0.0, 0.0, 0.0, 0.0, 0.89, 1.91, 5.29, 7.27, 7.27, 6.42, 4.6, 2.6, 2.19, 1.84, 1.6, 2.49, 2.79, 4.05, 5.91, 7.14, 7.46, 7.8, 8.97, 9.14, 9.6, 9.01, 7.84, 7.0, 7.0, 7.0]}]